Time,TemperatureF,DewpointF,PressureIn,WindDirection,WindDirectionDegrees,WindSpeedMPH,WindSpeedGustMPH,Humidity,HourlyPrecipIn,Conditions,Clouds,dailyrainin,SoftwareType,DateUTC
2013-01-21 00:00:00,16.5,5.4,30.10,WNW,298,6.0,15.0,61,0.00,,---,0.00,VWS V14.00,2013-01-21 05:00:00,
2013-01-21 00:01:00,16.5,5.4,30.10,WNW,291,7.0,7.0,61,0.00,,---,0.00,VWS V14.00,2013-01-21 05:01:00,
2013-01-21 00:03:00,16.4,5.3,30.10,WNW,287,6.0,8.0,61,0.00,,---,0.00,VWS V14.00,2013-01-21 05:03:00,
2013-01-21 00:05:00,16.4,5.3,30.10,NW,326,4.0,8.0,61,0.00,,---,0.00,VWS V14.00,2013-01-21 05:05:00,
2013-01-21 00:06:00,16.4,5.7,30.10,NW,325,4.0,8.0,62,0.00,,---,0.00,VWS V14.00,2013-01-21 05:06:00,
2013-01-21 00:08:00,16.4,5.7,30.10,WNW,298,8.0,9.0,62,0.00,,---,0.00,VWS V14.00,2013-01-21 05:08:00,
2013-01-21 00:10:00,16.4,5.7,30.10,WNW,289,7.0,10.0,62,0.00,,---,0.00,VWS V14.00,2013-01-21 05:10:00,
2013-01-21 00:11:00,16.4,5.7,30.10,WNW,292,2.0,10.0,62,0.00,,---,0.00,VWS V14.00,2013-01-21 05:11:00,
2013-01-21 00:13:00,16.4,5.7,30.10,WNW,295,2.0,10.0,62,0.00,,---,0.00,VWS V14.00,2013-01-21 05:13:00,
2013-01-21 00:15:00,16.4,5.7,30.09,West,280,8.0,10.0,62,0.00,,---,0.00,VWS V14.00,2013-01-21 05:15:00,
2013-01-21 00:16:00,16.4,5.7,30.09,WNW,292,7.0,10.0,62,0.00,,---,0.00,VWS V14.00,2013-01-21 05:16:00,
2013-01-21 00:17:00,16.4,5.7,30.09,West,268,4.0,10.0,62,0.00,,---,0.00,VWS V14.00,2013-01-21 05:17:00,
2013-01-21 00:18:00,16.4,5.7,30.09,WNW,284,4.0,10.0,62,0.00,,---,0.00,VWS V14.00,2013-01-21 05:18:00,
2013-01-21 00:20:00,16.4,5.7,30.09,West,274,4.0,10.0,62,0.00,,---,0.00,VWS V14.00,2013-01-21 05:20:00,
2013-01-21 00:22:00,16.4,5.7,30.09,WNW,288,7.0,10.0,62,0.00,,---,0.00,VWS V14.00,2013-01-21 05:22:00,
2013-01-21 00:23:00,16.4,5.7,30.09,West,280,1.0,10.0,62,0.00,,---,0.00,VWS V14.00,2013-01-21 05:23:00,
2013-01-21 00:25:00,16.4,5.7,30.09,West,265,4.0,10.0,62,0.00,,---,0.00,VWS V14.00,2013-01-21 05:25:00,
2013-01-21 00:27:00,16.4,5.7,30.09,WNW,294,6.0,10.0,62,0.00,,---,0.00,VWS V14.00,2013-01-21 05:27:00,
2013-01-21 00:28:00,16.4,5.7,30.09,WNW,298,4.0,10.0,62,0.00,,---,0.00,VWS V14.00,2013-01-21 05:28:00,
2013-01-21 00:30:00,16.4,5.7,30.08,WNW,296,4.0,10.0,62,0.00,,---,0.00,VWS V14.00,2013-01-21 05:30:00,
2013-01-21 00:33:00,16.4,5.7,30.08,WNW,296,2.0,10.0,62,0.00,,---,0.00,VWS V14.00,2013-01-21 05:33:00,
2013-01-21 00:34:00,16.4,5.7,30.08,SW,234,6.0,10.0,62,0.00,,---,0.00,VWS V14.00,2013-01-21 05:34:00,
2013-01-21 00:36:00,16.4,5.7,30.08,WNW,292,2.0,10.0,62,0.00,,---,0.00,VWS V14.00,2013-01-21 05:36:00,
2013-01-21 00:38:00,16.4,5.7,30.08,WNW,292,2.0,10.0,62,0.00,,---,0.00,VWS V14.00,2013-01-21 05:38:00,
2013-01-21 00:39:00,16.4,5.7,30.08,WNW,292,2.0,10.0,62,0.00,,---,0.00,VWS V14.00,2013-01-21 05:39:00,
2013-01-21 00:41:00,16.4,5.7,30.08,WNW,295,4.0,10.0,62,0.00,,---,0.00,VWS V14.00,2013-01-21 05:41:00,
2013-01-21 00:43:00,16.2,5.5,30.08,WNW,295,1.0,10.0,62,0.00,,---,0.00,VWS V14.00,2013-01-21 05:43:00,
2013-01-21 00:44:00,16.2,5.5,30.08,WNW,295,1.0,10.0,62,0.00,,---,0.00,VWS V14.00,2013-01-21 05:44:00,
2013-01-21 00:46:00,16.2,5.5,30.07,WNW,295,0.0,10.0,62,0.00,,---,0.00,VWS V14.00,2013-01-21 05:46:00,
2013-01-21 00:48:00,16.2,5.5,30.07,WNW,295,6.0,10.0,62,0.00,,---,0.00,VWS V14.00,2013-01-21 05:48:00,
2013-01-21 00:49:00,16.2,5.8,30.07,WNW,295,1.0,10.0,63,0.00,,---,0.00,VWS V14.00,2013-01-21 05:49:00,
2013-01-21 00:51:00,16.2,5.5,30.07,WNW,295,6.0,10.0,62,0.00,,---,0.00,VWS V14.00,2013-01-21 05:51:00,
2013-01-21 00:53:00,16.2,5.8,30.07,WNW,295,2.0,10.0,63,0.00,,---,0.00,VWS V14.00,2013-01-21 05:53:00,
2013-01-21 00:54:00,16.2,5.8,30.07,WNW,295,2.0,10.0,63,0.00,,---,0.00,VWS V14.00,2013-01-21 05:54:00,
2013-01-21 00:57:00,16.2,5.8,30.07,WNW,288,2.0,10.0,63,0.00,,---,0.00,VWS V14.00,2013-01-21 05:57:00,
2013-01-21 00:58:00,16.2,5.8,30.07,WNW,288,2.0,10.0,63,0.00,,---,0.00,VWS V14.00,2013-01-21 05:58:00,
2013-01-21 00:59:00,16.2,5.8,30.07,WNW,287,0.0,10.0,63,0.00,,---,0.00,VWS V14.00,2013-01-21 05:59:00,
2013-01-21 01:02:00,16.1,5.7,30.07,WNW,287,0.0,0.0,63,0.00,,---,0.00,VWS V14.00,2013-01-21 06:02:00,
2013-01-21 01:03:00,16.1,6.1,30.07,WNW,287,0.0,0.0,64,0.00,,---,0.00,VWS V14.00,2013-01-21 06:03:00,
2013-01-21 01:04:00,16.1,6.1,30.07,WNW,287,0.0,0.0,64,0.00,,---,0.00,VWS V14.00,2013-01-21 06:04:00,
2013-01-21 01:07:00,16.1,6.1,30.07,West,274,2.0,4.0,64,0.00,,---,0.00,VWS V14.00,2013-01-21 06:07:00,
2013-01-21 01:08:00,16.1,6.1,30.07,West,281,1.0,4.0,64,0.00,,---,0.00,VWS V14.00,2013-01-21 06:08:00,
2013-01-21 01:10:00,16.1,6.1,30.07,WNW,289,1.0,4.0,64,0.00,,---,0.00,VWS V14.00,2013-01-21 06:10:00,
2013-01-21 01:12:00,16.1,6.1,30.07,WNW,289,0.0,4.0,64,0.00,,---,0.00,VWS V14.00,2013-01-21 06:12:00,
2013-01-21 01:13:00,16.1,6.1,30.07,WNW,289,1.0,4.0,64,0.00,,---,0.00,VWS V14.00,2013-01-21 06:13:00,
2013-01-21 01:15:00,16.1,6.1,30.06,WNW,288,1.0,4.0,64,0.00,,---,0.00,VWS V14.00,2013-01-21 06:15:00,
2013-01-21 01:17:00,16.1,6.1,30.06,WNW,287,1.0,4.0,64,0.00,,---,0.00,VWS V14.00,2013-01-21 06:17:00,
2013-01-21 01:18:00,16.1,6.1,30.06,WNW,287,1.0,4.0,64,0.00,,---,0.00,VWS V14.00,2013-01-21 06:18:00,
2013-01-21 01:19:00,16.1,6.1,30.06,WNW,287,1.0,4.0,64,0.00,,---,0.00,VWS V14.00,2013-01-21 06:19:00,
2013-01-21 01:20:00,16.1,6.1,30.06,WNW,287,1.0,4.0,64,0.00,,---,0.00,VWS V14.00,2013-01-21 06:20:00,
2013-01-21 01:23:00,16.1,6.1,30.06,WNW,287,1.0,4.0,64,0.00,,---,0.00,VWS V14.00,2013-01-21 06:23:00,
2013-01-21 01:24:00,16.1,6.1,30.06,WNW,287,0.0,4.0,64,0.00,,---,0.00,VWS V14.00,2013-01-21 06:24:00,
2013-01-21 01:25:00,16.1,6.1,30.06,WNW,287,0.0,4.0,64,0.00,,---,0.00,VWS V14.00,2013-01-21 06:25:00,
2013-01-21 01:28:00,16.1,6.4,30.06,WNW,287,0.0,4.0,65,0.00,,---,0.00,VWS V14.00,2013-01-21 06:28:00,
2013-01-21 01:29:00,16.1,6.4,30.06,WNW,287,0.0,4.0,65,0.00,,---,0.00,VWS V14.00,2013-01-21 06:29:00,
2013-01-21 01:30:00,16.1,6.4,30.05,WNW,287,0.0,4.0,65,0.00,,---,0.00,VWS V14.00,2013-01-21 06:30:00,
2013-01-21 01:33:00,16.1,6.4,30.05,WNW,287,0.0,4.0,65,0.00,,---,0.00,VWS V14.00,2013-01-21 06:33:00,
2013-01-21 01:34:00,16.1,6.4,30.05,WNW,287,0.0,4.0,65,0.00,,---,0.00,VWS V14.00,2013-01-21 06:34:00,
2013-01-21 01:35:00,16.1,6.4,30.05,WNW,287,0.0,4.0,65,0.00,,---,0.00,VWS V14.00,2013-01-21 06:35:00,
2013-01-21 01:38:00,16.1,6.4,30.05,WNW,287,2.0,4.0,65,0.00,,---,0.00,VWS V14.00,2013-01-21 06:38:00,
2013-01-21 01:39:00,16.1,6.4,30.05,WNW,287,2.0,4.0,65,0.00,,---,0.00,VWS V14.00,2013-01-21 06:39:00,
2013-01-21 01:40:00,16.2,6.5,30.05,WNW,287,0.0,4.0,65,0.00,,---,0.00,VWS V14.00,2013-01-21 06:40:00,
2013-01-21 01:43:00,16.2,6.5,30.05,WNW,287,1.0,4.0,65,0.00,,---,0.00,VWS V14.00,2013-01-21 06:43:00,
2013-01-21 01:44:00,16.2,6.5,30.05,WNW,287,1.0,4.0,65,0.00,,---,0.00,VWS V14.00,2013-01-21 06:44:00,
2013-01-21 01:46:00,16.2,6.5,30.05,WNW,287,4.0,4.0,65,0.00,,---,0.00,VWS V14.00,2013-01-21 06:46:00,
2013-01-21 01:48:00,16.2,6.5,30.05,WNW,285,1.0,6.0,65,0.00,,---,0.00,VWS V14.00,2013-01-21 06:48:00,
2013-01-21 01:49:00,16.2,6.5,30.05,WNW,285,0.0,6.0,65,0.00,,---,0.00,VWS V14.00,2013-01-21 06:49:00,
2013-01-21 01:50:00,16.2,6.5,30.05,WNW,285,0.0,6.0,65,0.00,,---,0.00,VWS V14.00,2013-01-21 06:50:00,
2013-01-21 01:51:00,16.2,6.5,30.05,WNW,285,0.0,6.0,65,0.00,,---,0.00,VWS V14.00,2013-01-21 06:51:00,
2013-01-21 01:53:00,16.2,6.5,30.05,WNW,287,4.0,6.0,65,0.00,,---,0.00,VWS V14.00,2013-01-21 06:53:00,
2013-01-21 01:54:00,16.2,6.5,30.05,WNW,287,4.0,6.0,65,0.00,,---,0.00,VWS V14.00,2013-01-21 06:54:00,
2013-01-21 01:55:00,16.2,6.5,30.05,WNW,294,2.0,6.0,65,0.00,,---,0.00,VWS V14.00,2013-01-21 06:55:00,
2013-01-21 01:56:00,16.2,6.5,30.05,WNW,294,4.0,6.0,65,0.00,,---,0.00,VWS V14.00,2013-01-21 06:56:00,
2013-01-21 01:58:00,16.2,6.5,30.05,WNW,294,2.0,6.0,65,0.00,,---,0.00,VWS V14.00,2013-01-21 06:58:00,
2013-01-21 02:00:00,16.2,6.5,30.05,WNW,294,2.0,6.0,65,0.00,,---,0.00,VWS V14.00,2013-01-21 07:00:00,
2013-01-21 02:01:00,16.2,6.5,30.05,WNW,294,2.0,6.0,65,0.00,,---,0.00,VWS V14.00,2013-01-21 07:01:00,
2013-01-21 02:03:00,16.2,6.5,30.05,WNW,294,1.0,6.0,65,0.00,,---,0.00,VWS V14.00,2013-01-21 07:03:00,
2013-01-21 02:05:00,16.2,6.5,30.05,WNW,294,1.0,6.0,65,0.00,,---,0.00,VWS V14.00,2013-01-21 07:05:00,
2013-01-21 02:06:00,16.2,6.5,30.05,WNW,301,1.0,6.0,65,0.00,,---,0.00,VWS V14.00,2013-01-21 07:06:00,
2013-01-21 02:08:00,16.2,6.5,30.05,WNW,301,1.0,6.0,65,0.00,,---,0.00,VWS V14.00,2013-01-21 07:08:00,
2013-01-21 02:10:00,16.2,6.5,30.05,WNW,301,1.0,6.0,65,0.00,,---,0.00,VWS V14.00,2013-01-21 07:10:00,
2013-01-21 02:11:00,16.2,6.5,30.05,WNW,301,0.0,6.0,65,0.00,,---,0.00,VWS V14.00,2013-01-21 07:11:00,
2013-01-21 02:13:00,16.2,6.5,30.05,WNW,301,0.0,6.0,65,0.00,,---,0.00,VWS V14.00,2013-01-21 07:13:00,
2013-01-21 02:15:00,16.2,6.5,30.05,WNW,301,2.0,6.0,65,0.00,,---,0.00,VWS V14.00,2013-01-21 07:15:00,
2013-01-21 02:16:00,16.2,6.5,30.05,WNW,301,1.0,6.0,65,0.00,,---,0.00,VWS V14.00,2013-01-21 07:16:00,
2013-01-21 02:19:00,16.2,6.5,30.05,WNW,301,0.0,6.0,65,0.00,,---,0.00,VWS V14.00,2013-01-21 07:19:00,
2013-01-21 02:20:00,16.2,6.5,30.05,WNW,301,0.0,6.0,65,0.00,,---,0.00,VWS V14.00,2013-01-21 07:20:00,
2013-01-21 02:21:00,16.2,6.5,30.05,WNW,301,0.0,6.0,65,0.00,,---,0.00,VWS V14.00,2013-01-21 07:21:00,
2013-01-21 02:24:00,16.2,6.5,30.05,WNW,301,0.0,6.0,65,0.00,,---,0.00,VWS V14.00,2013-01-21 07:24:00,
2013-01-21 02:25:00,16.2,6.8,30.05,WNW,301,0.0,6.0,66,0.00,,---,0.00,VWS V14.00,2013-01-21 07:25:00,
2013-01-21 02:26:00,16.2,6.8,30.05,WNW,301,0.0,6.0,66,0.00,,---,0.00,VWS V14.00,2013-01-21 07:26:00,
2013-01-21 02:27:00,16.2,6.8,30.05,WNW,301,0.0,6.0,66,0.00,,---,0.00,VWS V14.00,2013-01-21 07:27:00,
2013-01-21 02:29:00,16.2,6.8,30.05,WNW,301,1.0,6.0,66,0.00,,---,0.00,VWS V14.00,2013-01-21 07:29:00,
2013-01-21 02:31:00,16.2,6.8,30.05,WNW,291,2.0,6.0,66,0.00,,---,0.00,VWS V14.00,2013-01-21 07:31:00,
2013-01-21 02:32:00,16.2,6.8,30.05,WNW,291,2.0,6.0,66,0.00,,---,0.00,VWS V14.00,2013-01-21 07:32:00,
2013-01-21 02:34:00,16.2,6.8,30.05,WNW,291,0.0,6.0,66,0.00,,---,0.00,VWS V14.00,2013-01-21 07:34:00,
2013-01-21 02:36:00,16.2,6.8,30.05,WNW,291,0.0,6.0,66,0.00,,---,0.00,VWS V14.00,2013-01-21 07:36:00,
2013-01-21 02:37:00,16.2,6.8,30.05,WNW,291,0.0,6.0,66,0.00,,---,0.00,VWS V14.00,2013-01-21 07:37:00,
2013-01-21 02:39:00,16.2,6.8,30.05,WNW,291,0.0,6.0,66,0.00,,---,0.00,VWS V14.00,2013-01-21 07:39:00,
2013-01-21 02:41:00,16.2,6.8,30.05,WNW,291,0.0,6.0,66,0.00,,---,0.00,VWS V14.00,2013-01-21 07:41:00,
2013-01-21 02:42:00,16.2,6.8,30.05,WNW,291,0.0,6.0,66,0.00,,---,0.00,VWS V14.00,2013-01-21 07:42:00,
2013-01-21 02:44:00,16.2,6.8,30.05,WNW,291,0.0,6.0,66,0.00,,---,0.00,VWS V14.00,2013-01-21 07:44:00,
2013-01-21 02:46:00,16.2,6.8,30.05,WNW,291,0.0,6.0,66,0.00,,---,0.00,VWS V14.00,2013-01-21 07:46:00,
2013-01-21 02:47:00,16.2,6.8,30.05,WNW,291,1.0,6.0,66,0.00,,---,0.00,VWS V14.00,2013-01-21 07:47:00,
2013-01-21 02:50:00,16.2,6.8,30.05,WNW,291,0.0,6.0,66,0.00,,---,0.00,VWS V14.00,2013-01-21 07:50:00,
2013-01-21 02:51:00,16.2,6.8,30.05,WNW,291,0.0,6.0,66,0.00,,---,0.00,VWS V14.00,2013-01-21 07:51:00,
2013-01-21 02:52:00,16.2,6.8,30.05,WNW,291,0.0,6.0,66,0.00,,---,0.00,VWS V14.00,2013-01-21 07:52:00,
2013-01-21 02:55:00,16.2,6.8,30.05,WNW,291,0.0,6.0,66,0.00,,---,0.00,VWS V14.00,2013-01-21 07:55:00,
2013-01-21 02:56:00,16.2,6.8,30.05,WNW,291,0.0,6.0,66,0.00,,---,0.00,VWS V14.00,2013-01-21 07:56:00,
2013-01-21 02:57:00,16.2,7.2,30.05,WNW,291,0.0,6.0,67,0.00,,---,0.00,VWS V14.00,2013-01-21 07:57:00,
2013-01-21 02:58:00,16.2,7.2,30.05,WNW,291,0.0,6.0,67,0.00,,---,0.00,VWS V14.00,2013-01-21 07:58:00,
2013-01-21 03:00:00,16.2,7.2,30.04,WNW,291,0.0,6.0,67,0.00,,---,0.00,VWS V14.00,2013-01-21 08:00:00,
2013-01-21 03:01:00,16.2,7.2,30.04,WNW,291,0.0,0.0,67,0.00,,---,0.00,VWS V14.00,2013-01-21 08:01:00,
2013-01-21 03:03:00,16.2,7.2,30.04,WNW,291,0.0,0.0,67,0.00,,---,0.00,VWS V14.00,2013-01-21 08:03:00,
2013-01-21 03:05:00,16.2,7.2,30.04,WNW,291,0.0,0.0,67,0.00,,---,0.00,VWS V14.00,2013-01-21 08:05:00,
2013-01-21 03:07:00,16.2,7.2,30.04,WNW,291,0.0,0.0,67,0.00,,---,0.00,VWS V14.00,2013-01-21 08:07:00,
2013-01-21 03:08:00,16.2,7.2,30.04,WNW,291,0.0,0.0,67,0.00,,---,0.00,VWS V14.00,2013-01-21 08:08:00,
2013-01-21 03:10:00,16.2,7.2,30.04,WNW,291,0.0,0.0,67,0.00,,---,0.00,VWS V14.00,2013-01-21 08:10:00,
2013-01-21 03:12:00,16.2,7.2,30.04,WNW,291,0.0,0.0,67,0.00,,---,0.00,VWS V14.00,2013-01-21 08:12:00,
2013-01-21 03:13:00,16.2,7.2,30.04,WNW,291,0.0,0.0,67,0.00,,---,0.00,VWS V14.00,2013-01-21 08:13:00,
2013-01-21 03:14:00,16.2,7.2,30.04,WNW,291,0.0,0.0,67,0.00,,---,0.00,VWS V14.00,2013-01-21 08:14:00,
2013-01-21 03:15:00,16.2,7.2,30.04,WNW,291,0.0,0.0,67,0.00,,---,0.00,VWS V14.00,2013-01-21 08:15:00,
2013-01-21 03:17:00,16.2,7.2,30.04,WNW,291,0.0,0.0,67,0.00,,---,0.00,VWS V14.00,2013-01-21 08:17:00,
2013-01-21 03:18:00,16.2,7.2,30.04,WNW,291,0.0,0.0,67,0.00,,---,0.00,VWS V14.00,2013-01-21 08:18:00,
2013-01-21 03:19:00,16.2,7.2,30.04,WNW,291,0.0,0.0,67,0.00,,---,0.00,VWS V14.00,2013-01-21 08:19:00,
2013-01-21 03:20:00,16.2,7.5,30.04,WNW,291,0.0,0.0,68,0.00,,---,0.00,VWS V14.00,2013-01-21 08:20:00,
2013-01-21 03:22:00,16.2,7.5,30.04,WNW,291,0.0,0.0,68,0.00,,---,0.00,VWS V14.00,2013-01-21 08:22:00,
2013-01-21 03:23:00,16.2,7.5,30.04,WNW,291,0.0,0.0,68,0.00,,---,0.00,VWS V14.00,2013-01-21 08:23:00,
2013-01-21 03:24:00,16.2,7.5,30.04,WNW,291,0.0,0.0,68,0.00,,---,0.00,VWS V14.00,2013-01-21 08:24:00,
2013-01-21 03:26:00,16.2,7.5,30.04,WNW,291,0.0,0.0,68,0.00,,---,0.00,VWS V14.00,2013-01-21 08:26:00,
2013-01-21 03:28:00,16.2,7.5,30.04,WNW,291,0.0,0.0,68,0.00,,---,0.00,VWS V14.00,2013-01-21 08:28:00,
2013-01-21 03:29:00,16.2,7.5,30.04,WNW,291,0.0,0.0,68,0.00,,---,0.00,VWS V14.00,2013-01-21 08:29:00,
2013-01-21 03:31:00,16.2,7.5,30.03,WNW,291,0.0,0.0,68,0.00,,---,0.00,VWS V14.00,2013-01-21 08:31:00,
2013-01-21 03:33:00,16.2,7.5,30.03,WNW,291,0.0,0.0,68,0.00,,---,0.00,VWS V14.00,2013-01-21 08:33:00,
2013-01-21 03:34:00,16.2,7.5,30.03,WNW,291,0.0,0.0,68,0.00,,---,0.00,VWS V14.00,2013-01-21 08:34:00,
2013-01-21 03:36:00,16.2,7.5,30.03,WNW,291,0.0,0.0,68,0.00,,---,0.00,VWS V14.00,2013-01-21 08:36:00,
2013-01-21 03:38:00,16.2,7.5,30.03,WNW,291,0.0,0.0,68,0.00,,---,0.00,VWS V14.00,2013-01-21 08:38:00,
2013-01-21 03:39:00,16.2,7.5,30.03,WNW,291,0.0,0.0,68,0.00,,---,0.00,VWS V14.00,2013-01-21 08:39:00,
2013-01-21 03:41:00,16.2,7.8,30.03,WNW,291,0.0,0.0,69,0.00,,---,0.00,VWS V14.00,2013-01-21 08:41:00,
2013-01-21 03:43:00,16.2,7.8,30.03,WNW,291,0.0,0.0,69,0.00,,---,0.00,VWS V14.00,2013-01-21 08:43:00,
2013-01-21 03:44:00,16.2,7.8,30.03,WNW,291,0.0,0.0,69,0.00,,---,0.00,VWS V14.00,2013-01-21 08:44:00,
2013-01-21 03:47:00,16.2,7.8,30.02,WNW,291,0.0,0.0,69,0.00,,---,0.00,VWS V14.00,2013-01-21 08:47:00,
2013-01-21 03:48:00,16.2,7.8,30.02,WNW,291,0.0,0.0,69,0.00,,---,0.00,VWS V14.00,2013-01-21 08:48:00,
2013-01-21 03:49:00,16.2,7.8,30.02,WNW,291,0.0,0.0,69,0.00,,---,0.00,VWS V14.00,2013-01-21 08:49:00,
2013-01-21 03:52:00,16.2,7.8,30.02,SSW,209,0.0,0.0,69,0.00,,---,0.00,VWS V14.00,2013-01-21 08:52:00,
2013-01-21 03:54:00,16.2,7.8,30.02,South,172,2.0,2.0,69,0.00,,---,0.00,VWS V14.00,2013-01-21 08:54:00,
2013-01-21 03:57:00,16.4,8.3,30.02,South,172,0.0,2.0,70,0.00,,---,0.00,VWS V14.00,2013-01-21 08:57:00,
2013-01-21 03:59:00,16.4,8.3,30.02,South,172,0.0,2.0,70,0.00,,---,0.00,VWS V14.00,2013-01-21 08:59:00,
2013-01-21 04:00:00,16.4,8.3,30.02,South,172,0.0,2.0,70,0.00,,---,0.00,VWS V14.00,2013-01-21 09:00:00,
2013-01-21 04:02:00,16.4,8.3,30.02,South,172,0.0,1.0,70,0.00,,---,0.00,VWS V14.00,2013-01-21 09:02:00,
2013-01-21 04:04:00,16.4,8.3,30.02,South,172,1.0,1.0,70,0.00,,---,0.00,VWS V14.00,2013-01-21 09:04:00,
2013-01-21 04:05:00,16.4,8.3,30.02,South,172,0.0,2.0,70,0.00,,---,0.00,VWS V14.00,2013-01-21 09:05:00,
2013-01-21 04:07:00,16.4,8.7,30.02,South,172,1.0,2.0,71,0.00,,---,0.00,VWS V14.00,2013-01-21 09:07:00,
2013-01-21 04:09:00,16.4,8.7,30.02,South,174,2.0,2.0,71,0.00,,---,0.00,VWS V14.00,2013-01-21 09:09:00,
2013-01-21 04:10:00,16.4,8.7,30.02,South,179,4.0,4.0,71,0.00,,---,0.00,VWS V14.00,2013-01-21 09:10:00,
2013-01-21 04:12:00,16.5,8.8,30.02,SSW,192,1.0,4.0,71,0.00,,---,0.00,VWS V14.00,2013-01-21 09:12:00,
2013-01-21 04:14:00,16.5,8.8,30.02,SSW,192,1.0,4.0,71,0.00,,---,0.00,VWS V14.00,2013-01-21 09:14:00,
2013-01-21 04:15:00,16.5,8.8,30.01,SSW,192,2.0,4.0,71,0.00,,---,0.00,VWS V14.00,2013-01-21 09:15:00,
2013-01-21 04:17:00,16.5,9.1,30.01,SW,224,1.0,7.0,72,0.00,,---,0.00,VWS V14.00,2013-01-21 09:17:00,
2013-01-21 04:19:00,16.5,9.1,30.01,SW,234,0.0,7.0,72,0.00,,---,0.00,VWS V14.00,2013-01-21 09:19:00,
2013-01-21 04:20:00,16.5,9.1,30.01,SW,234,2.0,7.0,72,0.00,,---,0.00,VWS V14.00,2013-01-21 09:20:00,
2013-01-21 04:23:00,16.7,9.3,30.01,SW,229,0.0,7.0,72,0.00,,---,0.00,VWS V14.00,2013-01-21 09:23:00,
2013-01-21 04:24:00,16.7,9.3,30.01,SSW,206,0.0,7.0,72,0.00,,---,0.00,VWS V14.00,2013-01-21 09:24:00,
2013-01-21 04:25:00,16.7,9.3,30.01,SSW,206,0.0,7.0,72,0.00,,---,0.00,VWS V14.00,2013-01-21 09:25:00,
2013-01-21 04:28:00,16.7,9.3,30.01,SSW,208,2.0,7.0,72,0.00,,---,0.00,VWS V14.00,2013-01-21 09:28:00,
2013-01-21 04:29:00,16.7,9.3,30.01,SSW,208,1.0,7.0,72,0.00,,---,0.00,VWS V14.00,2013-01-21 09:29:00,
2013-01-21 04:30:00,16.7,9.3,30.00,SSW,208,0.0,7.0,72,0.00,,---,0.00,VWS V14.00,2013-01-21 09:30:00,
2013-01-21 04:33:00,16.7,9.3,30.00,SSW,206,0.0,7.0,72,0.00,,---,0.00,VWS V14.00,2013-01-21 09:33:00,
2013-01-21 04:34:00,16.7,9.3,30.00,SSW,205,1.0,7.0,72,0.00,,---,0.00,VWS V14.00,2013-01-21 09:34:00,
2013-01-21 04:35:00,16.7,9.3,30.00,SSW,205,1.0,7.0,72,0.00,,---,0.00,VWS V14.00,2013-01-21 09:35:00,
2013-01-21 04:38:00,16.7,9.3,30.00,SSW,209,1.0,13.0,72,0.00,,---,0.00,VWS V14.00,2013-01-21 09:38:00,
2013-01-21 04:39:00,16.7,9.3,30.00,SW,224,4.0,13.0,72,0.00,,---,0.00,VWS V14.00,2013-01-21 09:39:00,
2013-01-21 04:40:00,16.7,9.3,30.00,SSW,205,6.0,13.0,72,0.00,,---,0.00,VWS V14.00,2013-01-21 09:40:00,
2013-01-21 04:43:00,16.7,9.3,30.00,SSW,209,2.0,13.0,72,0.00,,---,0.00,VWS V14.00,2013-01-21 09:43:00,
2013-01-21 04:44:00,16.7,9.3,29.99,West,278,4.0,13.0,72,0.00,,---,0.00,VWS V14.00,2013-01-21 09:44:00,
2013-01-21 04:45:00,16.7,9.3,29.99,West,277,2.0,13.0,72,0.00,,---,0.00,VWS V14.00,2013-01-21 09:45:00,
2013-01-21 04:46:00,16.7,9.3,29.99,West,275,4.0,13.0,72,0.00,,---,0.00,VWS V14.00,2013-01-21 09:46:00,
2013-01-21 04:48:00,16.7,9.3,29.99,SW,222,6.0,13.0,72,0.00,,---,0.00,VWS V14.00,2013-01-21 09:48:00,
2013-01-21 04:50:00,16.7,9.3,29.99,SW,217,9.0,13.0,72,0.00,,---,0.00,VWS V14.00,2013-01-21 09:50:00,
2013-01-21 04:51:00,16.7,9.3,29.99,SSW,195,7.0,13.0,72,0.00,,---,0.00,VWS V14.00,2013-01-21 09:51:00,
2013-01-21 04:53:00,16.7,9.3,29.99,SW,226,8.0,13.0,72,0.00,,---,0.00,VWS V14.00,2013-01-21 09:53:00,
2013-01-21 04:55:00,16.9,9.4,29.99,SSW,210,2.0,13.0,72,0.00,,---,0.00,VWS V14.00,2013-01-21 09:55:00,
2013-01-21 04:56:00,16.9,9.4,29.99,SW,216,6.0,13.0,72,0.00,,---,0.00,VWS V14.00,2013-01-21 09:56:00,
2013-01-21 04:58:00,16.9,9.4,29.99,SSW,206,6.0,13.0,72,0.00,,---,0.00,VWS V14.00,2013-01-21 09:58:00,
2013-01-21 05:00:00,16.9,9.4,29.99,SSW,206,6.0,13.0,72,0.00,,---,0.00,VWS V14.00,2013-01-21 10:00:00,
2013-01-21 05:01:00,16.9,9.4,29.99,SSW,206,2.0,4.0,72,0.00,,---,0.00,VWS V14.00,2013-01-21 10:01:00,
2013-01-21 05:03:00,16.9,9.4,29.99,SW,215,7.0,10.0,72,0.00,,---,0.00,VWS V14.00,2013-01-21 10:03:00,
2013-01-21 05:05:00,16.9,9.4,29.99,SW,219,2.0,10.0,72,0.00,,---,0.00,VWS V14.00,2013-01-21 10:05:00,
2013-01-21 05:06:00,16.9,9.4,29.99,SW,217,6.0,10.0,72,0.00,,---,0.00,VWS V14.00,2013-01-21 10:06:00,
2013-01-21 05:08:00,16.9,9.4,29.99,SW,219,4.0,10.0,72,0.00,,---,0.00,VWS V14.00,2013-01-21 10:08:00,
2013-01-21 05:10:00,16.9,9.4,29.99,SW,219,0.0,10.0,72,0.00,,---,0.00,VWS V14.00,2013-01-21 10:10:00,
2013-01-21 05:11:00,17.0,9.6,29.99,SSW,200,7.0,10.0,72,0.00,,---,0.00,VWS V14.00,2013-01-21 10:11:00,
2013-01-21 05:13:00,17.0,9.6,29.99,SSW,202,2.0,10.0,72,0.00,,---,0.00,VWS V14.00,2013-01-21 10:13:00,
2013-01-21 05:15:00,17.0,9.6,29.99,SSW,210,4.0,10.0,72,0.00,,---,0.00,VWS V14.00,2013-01-21 10:15:00,
2013-01-21 05:16:00,17.0,9.6,29.99,SSW,210,2.0,10.0,72,0.00,,---,0.00,VWS V14.00,2013-01-21 10:16:00,
2013-01-21 05:18:00,17.0,9.6,29.99,SW,215,4.0,10.0,72,0.00,,---,0.00,VWS V14.00,2013-01-21 10:18:00,
2013-01-21 05:20:00,17.0,9.6,29.99,SW,226,1.0,10.0,72,0.00,,---,0.00,VWS V14.00,2013-01-21 10:20:00,
2013-01-21 05:21:00,17.0,9.6,29.99,SW,219,4.0,10.0,72,0.00,,---,0.00,VWS V14.00,2013-01-21 10:21:00,
2013-01-21 05:22:00,17.0,9.6,29.99,SW,220,6.0,10.0,72,0.00,,---,0.00,VWS V14.00,2013-01-21 10:22:00,
2013-01-21 05:23:00,17.0,9.6,29.99,SW,215,4.0,10.0,72,0.00,,---,0.00,VWS V14.00,2013-01-21 10:23:00,
2013-01-21 05:26:00,17.0,9.6,29.99,SSW,203,4.0,10.0,72,0.00,,---,0.00,VWS V14.00,2013-01-21 10:26:00,
2013-01-21 05:27:00,17.0,9.6,29.99,SSW,203,4.0,10.0,72,0.00,,---,0.00,VWS V14.00,2013-01-21 10:27:00,
2013-01-21 05:28:00,17.0,9.6,29.99,SSW,203,2.0,10.0,72,0.00,,---,0.00,VWS V14.00,2013-01-21 10:28:00,
2013-01-21 05:30:00,17.0,9.6,29.98,SSW,213,6.0,10.0,72,0.00,,---,0.00,VWS V14.00,2013-01-21 10:30:00,
2013-01-21 05:32:00,17.0,9.6,29.98,SSW,205,6.0,10.0,72,0.00,,---,0.00,VWS V14.00,2013-01-21 10:32:00,
2013-01-21 05:34:00,17.0,9.6,29.98,SSW,192,7.0,10.0,72,0.00,,---,0.00,VWS V14.00,2013-01-21 10:34:00,
2013-01-21 05:36:00,17.0,9.6,29.98,SSW,210,4.0,10.0,72,0.00,,---,0.00,VWS V14.00,2013-01-21 10:36:00,
2013-01-21 05:37:00,17.0,9.6,29.98,SSW,209,2.0,10.0,72,0.00,,---,0.00,VWS V14.00,2013-01-21 10:37:00,
2013-01-21 05:39:00,17.2,9.7,29.98,SSW,209,2.0,10.0,72,0.00,,---,0.00,VWS V14.00,2013-01-21 10:39:00,
2013-01-21 05:41:00,17.2,9.7,29.98,SSW,209,4.0,10.0,72,0.00,,---,0.00,VWS V14.00,2013-01-21 10:41:00,
2013-01-21 05:42:00,17.2,9.7,29.98,SSW,206,4.0,10.0,72,0.00,,---,0.00,VWS V14.00,2013-01-21 10:42:00,
2013-01-21 05:43:00,17.2,9.7,29.98,SSW,200,1.0,10.0,72,0.00,,---,0.00,VWS V14.00,2013-01-21 10:43:00,
2013-01-21 05:44:00,17.2,9.7,29.98,SSW,202,8.0,10.0,72,0.00,,---,0.00,VWS V14.00,2013-01-21 10:44:00,
2013-01-21 05:46:00,17.2,10.1,29.98,SW,216,4.0,10.0,73,0.00,,---,0.00,VWS V14.00,2013-01-21 10:46:00,
2013-01-21 05:47:00,17.2,10.1,29.98,SW,233,7.0,10.0,73,0.00,,---,0.00,VWS V14.00,2013-01-21 10:47:00,
2013-01-21 05:48:00,17.2,10.1,29.98,West,267,4.0,10.0,73,0.00,,---,0.00,VWS V14.00,2013-01-21 10:48:00,
2013-01-21 05:49:00,17.2,10.1,29.98,SSW,213,2.0,10.0,73,0.00,,---,0.00,VWS V14.00,2013-01-21 10:49:00,
2013-01-21 05:51:00,17.3,10.1,29.98,SSW,205,8.0,14.0,73,0.00,,---,0.00,VWS V14.00,2013-01-21 10:51:00,
2013-01-21 05:52:00,17.3,10.1,29.98,SW,222,10.0,14.0,73,0.00,,---,0.00,VWS V14.00,2013-01-21 10:52:00,
2013-01-21 05:53:00,17.3,10.1,29.98,SSW,199,4.0,14.0,73,0.00,,---,0.00,VWS V14.00,2013-01-21 10:53:00,
2013-01-21 05:54:00,17.3,10.1,29.98,WSW,241,2.0,14.0,73,0.00,,---,0.00,VWS V14.00,2013-01-21 10:54:00,
2013-01-21 05:56:00,17.3,10.1,29.98,SSW,212,8.0,14.0,73,0.00,,---,0.00,VWS V14.00,2013-01-21 10:56:00,
2013-01-21 05:57:00,17.3,10.1,29.98,SW,215,15.0,17.0,73,0.00,,---,0.00,VWS V14.00,2013-01-21 10:57:00,
2013-01-21 05:58:00,17.3,10.1,29.98,SSW,213,13.0,17.0,73,0.00,,---,0.00,VWS V14.00,2013-01-21 10:58:00,
2013-01-21 05:59:00,17.3,10.1,29.98,West,264,2.0,17.0,73,0.00,,---,0.00,VWS V14.00,2013-01-21 10:59:00,
2013-01-21 06:01:00,17.3,10.1,29.97,SSW,205,8.0,9.0,73,0.00,,---,0.00,VWS V14.00,2013-01-21 11:01:00,
2013-01-21 06:02:00,17.5,10.3,29.97,SW,224,2.0,9.0,73,0.00,,---,0.00,VWS V14.00,2013-01-21 11:02:00,
2013-01-21 06:03:00,17.5,10.3,29.97,SSW,202,8.0,9.0,73,0.00,,---,0.00,VWS V14.00,2013-01-21 11:03:00,
2013-01-21 06:04:00,17.5,10.3,29.97,SSW,210,9.0,14.0,73,0.00,,---,0.00,VWS V14.00,2013-01-21 11:04:00,
2013-01-21 06:06:00,17.5,10.3,29.97,WSW,239,6.0,14.0,73,0.00,,---,0.00,VWS V14.00,2013-01-21 11:06:00,
2013-01-21 06:07:00,17.5,10.3,29.97,SW,220,4.0,14.0,73,0.00,,---,0.00,VWS V14.00,2013-01-21 11:07:00,
2013-01-21 06:08:00,17.5,10.3,29.97,SSW,210,10.0,14.0,73,0.00,,---,0.00,VWS V14.00,2013-01-21 11:08:00,
2013-01-21 06:09:00,17.5,10.3,29.97,SW,230,6.0,14.0,73,0.00,,---,0.00,VWS V14.00,2013-01-21 11:09:00,
2013-01-21 06:11:00,17.5,10.3,29.97,SSW,196,6.0,14.0,73,0.00,,---,0.00,VWS V14.00,2013-01-21 11:11:00,
2013-01-21 06:13:00,17.5,10.3,29.97,SSW,212,7.0,14.0,73,0.00,,---,0.00,VWS V14.00,2013-01-21 11:13:00,
2013-01-21 06:14:00,17.5,10.3,29.96,WSW,239,4.0,14.0,73,0.00,,---,0.00,VWS V14.00,2013-01-21 11:14:00,
2013-01-21 06:17:00,17.7,10.5,29.96,SSW,205,11.0,14.0,73,0.00,,---,0.00,VWS V14.00,2013-01-21 11:17:00,
2013-01-21 06:18:00,17.7,10.5,29.96,SW,223,7.0,14.0,73,0.00,,---,0.00,VWS V14.00,2013-01-21 11:18:00,
2013-01-21 06:19:00,17.7,10.8,29.96,SSW,210,11.0,14.0,74,0.00,,---,0.00,VWS V14.00,2013-01-21 11:19:00,
2013-01-21 06:22:00,17.7,10.8,29.96,SSW,202,10.0,16.0,74,0.00,,---,0.00,VWS V14.00,2013-01-21 11:22:00,
2013-01-21 06:23:00,17.7,10.8,29.96,SSW,209,10.0,16.0,74,0.00,,---,0.00,VWS V14.00,2013-01-21 11:23:00,
2013-01-21 06:24:00,17.7,10.8,29.96,SSW,212,8.0,16.0,74,0.00,,---,0.00,VWS V14.00,2013-01-21 11:24:00,
2013-01-21 06:27:00,17.7,11.1,29.96,SSW,208,10.0,16.0,75,0.00,,---,0.00,VWS V14.00,2013-01-21 11:27:00,
2013-01-21 06:28:00,17.7,11.1,29.96,SSW,195,9.0,16.0,75,0.00,,---,0.00,VWS V14.00,2013-01-21 11:28:00,
2013-01-21 06:29:00,17.7,11.1,29.96,SSW,210,4.0,16.0,75,0.00,,---,0.00,VWS V14.00,2013-01-21 11:29:00,
2013-01-21 06:32:00,17.7,11.1,29.96,SSW,213,7.0,16.0,75,0.00,,---,0.00,VWS V14.00,2013-01-21 11:32:00,
2013-01-21 06:33:00,17.7,11.1,29.96,SW,216,7.0,16.0,75,0.00,,---,0.00,VWS V14.00,2013-01-21 11:33:00,
2013-01-21 06:34:00,17.7,11.1,29.96,SW,227,7.0,16.0,75,0.00,,---,0.00,VWS V14.00,2013-01-21 11:34:00,
2013-01-21 06:35:00,17.7,11.1,29.96,SW,217,4.0,16.0,75,0.00,,---,0.00,VWS V14.00,2013-01-21 11:35:00,
2013-01-21 06:37:00,17.7,11.1,29.96,SW,229,6.0,17.0,75,0.00,,---,0.00,VWS V14.00,2013-01-21 11:37:00,
2013-01-21 06:38:00,17.7,11.1,29.96,SSW,210,9.0,17.0,75,0.00,,---,0.00,VWS V14.00,2013-01-21 11:38:00,
2013-01-21 06:39:00,17.7,11.1,29.96,SW,226,7.0,17.0,75,0.00,,---,0.00,VWS V14.00,2013-01-21 11:39:00,
2013-01-21 06:40:00,17.7,11.1,29.96,SSW,208,4.0,17.0,75,0.00,,---,0.00,VWS V14.00,2013-01-21 11:40:00,
2013-01-21 06:43:00,17.7,11.1,29.96,SSW,212,6.0,17.0,75,0.00,,---,0.00,VWS V14.00,2013-01-21 11:43:00,
2013-01-21 06:44:00,17.7,11.4,29.96,SW,217,6.0,17.0,76,0.00,,---,0.00,VWS V14.00,2013-01-21 11:44:00,
2013-01-21 06:45:00,17.7,11.4,29.97,SW,216,7.0,17.0,76,0.00,,---,0.00,VWS V14.00,2013-01-21 11:45:00,
2013-01-21 06:48:00,17.7,11.4,29.97,SW,222,10.0,17.0,76,0.00,,---,0.00,VWS V14.00,2013-01-21 11:48:00,
2013-01-21 06:49:00,17.7,11.4,29.97,SSW,212,4.0,17.0,76,0.00,,---,0.00,VWS V14.00,2013-01-21 11:49:00,
2013-01-21 06:50:00,17.7,11.4,29.97,SSW,210,7.0,17.0,76,0.00,,---,0.00,VWS V14.00,2013-01-21 11:50:00,
2013-01-21 06:53:00,17.7,11.4,29.97,SSW,209,6.0,17.0,76,0.00,,---,0.00,VWS V14.00,2013-01-21 11:53:00,
2013-01-21 06:54:00,17.7,11.4,29.97,SSW,205,4.0,17.0,76,0.00,,---,0.00,VWS V14.00,2013-01-21 11:54:00,
2013-01-21 06:55:00,17.7,11.7,29.97,SW,222,7.0,17.0,77,0.00,,---,0.00,VWS V14.00,2013-01-21 11:55:00,
2013-01-21 06:58:00,17.7,11.7,29.97,SSW,203,10.0,17.0,77,0.00,,---,0.00,VWS V14.00,2013-01-21 11:58:00,
2013-01-21 06:59:00,17.7,11.7,29.97,SSW,203,6.0,17.0,77,0.00,,---,0.00,VWS V14.00,2013-01-21 11:59:00,
2013-01-21 07:00:00,17.7,11.7,29.96,SW,223,8.0,17.0,77,0.00,,---,0.00,VWS V14.00,2013-01-21 12:00:00,
2013-01-21 07:03:00,17.7,11.7,29.96,SW,229,8.0,14.0,77,0.00,,---,0.00,VWS V14.00,2013-01-21 12:03:00,
2013-01-21 07:04:00,17.7,11.7,29.96,SW,226,8.0,14.0,77,0.00,,---,0.00,VWS V14.00,2013-01-21 12:04:00,
2013-01-21 07:05:00,17.7,11.7,29.96,SSW,203,8.0,14.0,77,0.00,,---,0.00,VWS V14.00,2013-01-21 12:05:00,
2013-01-21 07:08:00,17.7,11.7,29.96,West,274,6.0,16.0,77,0.00,,---,0.00,VWS V14.00,2013-01-21 12:08:00,
2013-01-21 07:09:00,17.7,11.7,29.96,SW,236,4.0,16.0,77,0.00,,---,0.00,VWS V14.00,2013-01-21 12:09:00,
2013-01-21 07:10:00,17.7,11.7,29.96,WSW,247,8.0,17.0,77,0.00,,---,0.00,VWS V14.00,2013-01-21 12:10:00,
2013-01-21 07:14:00,17.5,11.5,29.96,SW,227,4.0,17.0,77,0.00,,---,0.00,VWS V14.00,2013-01-21 12:14:00,
2013-01-21 07:15:00,17.5,11.5,29.96,SW,227,10.0,17.0,77,0.00,,---,0.00,VWS V14.00,2013-01-21 12:15:00,
2013-01-21 07:19:00,17.5,11.2,29.96,SW,219,6.0,17.0,76,0.00,,---,0.00,VWS V14.00,2013-01-21 12:19:00,
2013-01-21 07:20:00,17.5,11.2,29.96,SW,220,10.0,17.0,76,0.00,,---,0.00,VWS V14.00,2013-01-21 12:20:00,
2013-01-21 07:24:00,17.5,10.9,29.96,SW,226,4.0,17.0,75,0.00,,---,0.00,VWS V14.00,2013-01-21 12:24:00,
2013-01-21 07:26:00,17.5,10.9,29.96,SW,216,2.0,17.0,75,0.00,,---,0.00,VWS V14.00,2013-01-21 12:26:00,
2013-01-21 07:29:00,17.5,10.9,29.96,SW,222,2.0,17.0,75,0.00,,---,0.00,VWS V14.00,2013-01-21 12:29:00,
2013-01-21 07:31:00,17.5,10.9,29.96,SW,223,9.0,17.0,75,0.00,,---,0.00,VWS V14.00,2013-01-21 12:31:00,
2013-01-21 07:34:00,17.5,10.9,29.96,SW,233,11.0,17.0,75,0.00,,---,0.00,VWS V14.00,2013-01-21 12:34:00,
2013-01-21 07:35:00,17.5,10.9,29.96,SW,224,8.0,17.0,75,0.00,,---,0.00,VWS V14.00,2013-01-21 12:35:00,
2013-01-21 07:36:00,17.5,10.9,29.96,SW,227,8.0,17.0,75,0.00,,---,0.00,VWS V14.00,2013-01-21 12:36:00,
2013-01-21 07:39:00,17.5,10.6,29.96,SW,230,7.0,17.0,74,0.00,,---,0.00,VWS V14.00,2013-01-21 12:39:00,
2013-01-21 07:40:00,17.5,10.6,29.96,SW,219,2.0,17.0,74,0.00,,---,0.00,VWS V14.00,2013-01-21 12:40:00,
2013-01-21 07:41:00,17.5,10.6,29.96,SW,219,8.0,17.0,74,0.00,,---,0.00,VWS V14.00,2013-01-21 12:41:00,
2013-01-21 07:44:00,17.5,10.6,29.96,WSW,246,8.0,17.0,74,0.00,,---,0.00,VWS V14.00,2013-01-21 12:44:00,
2013-01-21 07:45:00,17.5,10.9,29.96,SSW,209,7.0,17.0,75,0.00,,---,0.00,VWS V14.00,2013-01-21 12:45:00,
2013-01-21 07:46:00,17.5,10.9,29.96,WSW,254,4.0,17.0,75,0.00,,---,0.00,VWS V14.00,2013-01-21 12:46:00,
2013-01-21 07:49:00,17.5,10.9,29.96,WSW,243,14.0,17.0,75,0.00,,---,0.00,VWS V14.00,2013-01-21 12:49:00,
2013-01-21 07:50:00,17.5,10.9,29.96,WNW,292,6.0,17.0,75,0.00,,---,0.00,VWS V14.00,2013-01-21 12:50:00,
2013-01-21 07:51:00,17.5,10.9,29.96,WSW,240,8.0,17.0,75,0.00,,---,0.00,VWS V14.00,2013-01-21 12:51:00,
2013-01-21 07:55:00,17.5,10.9,29.96,WNW,295,7.0,17.0,75,0.00,,---,0.00,VWS V14.00,2013-01-21 12:55:00,
2013-01-21 07:56:00,17.5,10.9,29.96,SSW,208,8.0,17.0,75,0.00,,---,0.00,VWS V14.00,2013-01-21 12:56:00,
2013-01-21 08:00:00,17.3,10.8,29.95,SW,233,8.0,17.0,75,0.00,,---,0.00,VWS V14.00,2013-01-21 13:00:00,
2013-01-21 08:01:00,17.3,10.8,29.95,SW,233,9.0,10.0,75,0.00,,---,0.00,VWS V14.00,2013-01-21 13:01:00,
2013-01-21 08:05:00,17.3,11.1,29.95,SW,220,2.0,14.0,76,0.00,,---,0.00,VWS V14.00,2013-01-21 13:05:00,
2013-01-21 08:06:00,17.3,11.1,29.95,SSW,213,9.0,14.0,76,0.00,,---,0.00,VWS V14.00,2013-01-21 13:06:00,
2013-01-21 08:10:00,17.3,11.1,29.95,SSW,203,7.0,14.0,76,0.00,,---,0.00,VWS V14.00,2013-01-21 13:10:00,
2013-01-21 08:11:00,17.3,11.3,29.95,SSW,205,2.0,14.0,77,0.00,,---,0.00,VWS V14.00,2013-01-21 13:11:00,
2013-01-21 08:15:00,17.3,11.3,29.95,WSW,243,8.0,15.0,77,0.00,,---,0.00,VWS V14.00,2013-01-21 13:15:00,
2013-01-21 08:16:00,17.3,11.3,29.95,SW,219,2.0,15.0,77,0.00,,---,0.00,VWS V14.00,2013-01-21 13:16:00,
2013-01-21 08:20:00,17.3,11.3,29.95,SW,236,4.0,15.0,77,0.00,,---,0.00,VWS V14.00,2013-01-21 13:20:00,
2013-01-21 08:21:00,17.3,11.3,29.95,WNW,287,6.0,15.0,77,0.00,,---,0.00,VWS V14.00,2013-01-21 13:21:00,
2013-01-21 08:26:00,17.3,11.6,29.95,SW,230,6.0,15.0,78,0.00,,---,0.00,VWS V14.00,2013-01-21 13:26:00,
2013-01-21 08:31:00,17.3,11.9,29.95,WSW,240,8.0,15.0,79,0.00,,---,0.00,VWS V14.00,2013-01-21 13:31:00,
2013-01-21 08:32:00,17.3,11.9,29.95,WSW,237,9.0,15.0,79,0.00,,---,0.00,VWS V14.00,2013-01-21 13:32:00,
2013-01-21 08:36:00,17.2,12.1,29.95,SW,222,7.0,15.0,80,0.00,,---,0.00,VWS V14.00,2013-01-21 13:36:00,
2013-01-21 08:37:00,17.2,12.4,29.95,SSW,209,13.0,15.0,81,0.00,,---,0.00,VWS V14.00,2013-01-21 13:37:00,
2013-01-21 08:41:00,16.9,12.4,29.95,SW,232,13.0,17.0,82,0.00,,---,0.00,VWS V14.00,2013-01-21 13:41:00,
2013-01-21 08:42:00,16.9,12.4,29.95,SW,236,11.0,17.0,82,0.00,,---,0.00,VWS V14.00,2013-01-21 13:42:00,
2013-01-21 08:46:00,16.5,12.2,29.95,WSW,244,17.0,21.0,83,0.00,,---,0.00,VWS V14.00,2013-01-21 13:46:00,
2013-01-21 08:47:00,16.4,12.1,29.95,SW,215,11.0,23.0,83,0.00,,---,0.00,VWS V14.00,2013-01-21 13:47:00,
2013-01-21 08:51:00,16.1,12.1,29.95,SW,220,8.0,23.0,84,0.00,,---,0.00,VWS V14.00,2013-01-21 13:51:00,
2013-01-21 08:52:00,16.1,12.1,29.95,SW,234,8.0,23.0,84,0.00,,---,0.00,VWS V14.00,2013-01-21 13:52:00,
2013-01-21 08:56:00,15.9,11.9,29.95,WSW,239,14.0,23.0,84,0.00,,---,0.00,VWS V14.00,2013-01-21 13:56:00,
2013-01-21 08:57:00,15.9,11.9,29.95,West,263,9.0,23.0,84,0.00,,---,0.00,VWS V14.00,2013-01-21 13:57:00,
2013-01-21 09:01:00,15.7,11.7,29.96,WNW,282,15.0,15.0,84,0.00,,---,0.00,VWS V14.00,2013-01-21 14:01:00,
2013-01-21 09:02:00,15.6,11.6,29.96,WNW,302,7.0,15.0,84,0.00,,---,0.00,VWS V14.00,2013-01-21 14:02:00,
2013-01-21 09:06:00,15.2,11.5,29.96,WNW,285,13.0,15.0,85,0.00,,---,0.00,VWS V14.00,2013-01-21 14:06:00,
2013-01-21 09:07:00,15.2,11.5,29.96,West,275,7.0,15.0,85,0.00,,---,0.00,VWS V14.00,2013-01-21 14:07:00,
2013-01-21 09:11:00,15.1,11.4,29.96,NW,305,8.0,15.0,85,0.00,,---,0.00,VWS V14.00,2013-01-21 14:11:00,
2013-01-21 09:12:00,15.1,11.4,29.96,WNW,295,6.0,15.0,85,0.00,,---,0.00,VWS V14.00,2013-01-21 14:12:00,
2013-01-21 09:16:00,15.1,11.4,29.95,WNW,296,8.0,15.0,85,0.00,,---,0.00,VWS V14.00,2013-01-21 14:16:00,
2013-01-21 09:17:00,14.9,11.2,29.95,West,275,7.0,15.0,85,0.00,,---,0.00,VWS V14.00,2013-01-21 14:17:00,
2013-01-21 09:21:00,14.9,11.2,29.95,West,267,6.0,15.0,85,0.00,,---,0.00,VWS V14.00,2013-01-21 14:21:00,
2013-01-21 09:22:00,14.9,11.2,29.95,West,267,6.0,15.0,85,0.00,,---,0.00,VWS V14.00,2013-01-21 14:22:00,
2013-01-21 09:26:00,14.9,11.2,29.95,WNW,287,1.0,15.0,85,0.00,,---,0.00,VWS V14.00,2013-01-21 14:26:00,
2013-01-21 09:27:00,14.9,11.2,29.95,West,277,6.0,15.0,85,0.00,,---,0.00,VWS V14.00,2013-01-21 14:27:00,
2013-01-21 09:31:00,14.9,11.5,29.95,WNW,292,8.0,15.0,86,0.00,,---,0.00,VWS V14.00,2013-01-21 14:31:00,
2013-01-21 09:32:00,14.9,11.5,29.95,WSW,244,6.0,15.0,86,0.00,,---,0.00,VWS V14.00,2013-01-21 14:32:00,
2013-01-21 09:36:00,14.9,11.5,29.95,West,271,6.0,15.0,86,0.00,,---,0.00,VWS V14.00,2013-01-21 14:36:00,
2013-01-21 09:37:00,14.9,11.5,29.95,WSW,247,7.0,15.0,86,0.00,,---,0.00,VWS V14.00,2013-01-21 14:37:00,
2013-01-21 09:38:00,14.9,11.5,29.95,West,267,6.0,15.0,86,0.00,,---,0.00,VWS V14.00,2013-01-21 14:38:00,
2013-01-21 09:41:00,14.9,11.5,29.95,WNW,285,4.0,15.0,86,0.00,,---,0.00,VWS V14.00,2013-01-21 14:41:00,
2013-01-21 09:42:00,14.9,11.5,29.95,West,280,7.0,15.0,86,0.00,,---,0.00,VWS V14.00,2013-01-21 14:42:00,
2013-01-21 09:43:00,14.9,11.5,29.95,West,278,8.0,15.0,86,0.00,,---,0.00,VWS V14.00,2013-01-21 14:43:00,
2013-01-21 09:46:00,15.1,11.7,29.96,NW,305,0.0,15.0,86,0.00,,---,0.00,VWS V14.00,2013-01-21 14:46:00,
2013-01-21 09:47:00,15.1,11.7,29.96,SSW,213,2.0,15.0,86,0.00,,---,0.00,VWS V14.00,2013-01-21 14:47:00,
2013-01-21 09:48:00,15.1,11.7,29.96,West,268,4.0,15.0,86,0.00,,---,0.00,VWS V14.00,2013-01-21 14:48:00,
2013-01-21 09:51:00,15.2,11.8,29.96,West,270,6.0,15.0,86,0.00,,---,0.00,VWS V14.00,2013-01-21 14:51:00,
2013-01-21 09:52:00,15.2,11.8,29.96,West,281,4.0,15.0,86,0.00,,---,0.00,VWS V14.00,2013-01-21 14:52:00,
2013-01-21 09:53:00,15.2,11.8,29.96,WNW,282,4.0,15.0,86,0.00,,---,0.00,VWS V14.00,2013-01-21 14:53:00,
2013-01-21 09:57:00,15.2,11.8,29.96,SW,234,8.0,15.0,86,0.00,,---,0.00,VWS V14.00,2013-01-21 14:57:00,
2013-01-21 09:58:00,15.2,11.5,29.96,WNW,302,7.0,15.0,85,0.00,,---,0.00,VWS V14.00,2013-01-21 14:58:00,
2013-01-21 10:02:00,15.2,11.5,29.96,West,265,9.0,13.0,85,0.00,,---,0.00,VWS V14.00,2013-01-21 15:02:00,
2013-01-21 10:03:00,15.2,11.5,29.96,WNW,294,7.0,13.0,85,0.00,,---,0.00,VWS V14.00,2013-01-21 15:03:00,
2013-01-21 10:07:00,15.2,11.5,29.96,WNW,302,4.0,13.0,85,0.00,,---,0.00,VWS V14.00,2013-01-21 15:07:00,
2013-01-21 10:08:00,15.2,11.5,29.96,WNW,299,6.0,13.0,85,0.00,,---,0.00,VWS V14.00,2013-01-21 15:08:00,
2013-01-21 10:12:00,15.2,11.5,29.96,WNW,285,4.0,13.0,85,0.00,,---,0.00,VWS V14.00,2013-01-21 15:12:00,
2013-01-21 10:13:00,15.2,11.5,29.96,SW,230,8.0,13.0,85,0.00,,---,0.00,VWS V14.00,2013-01-21 15:13:00,
2013-01-21 10:17:00,15.1,11.4,29.96,SW,236,2.0,13.0,85,0.00,,---,0.00,VWS V14.00,2013-01-21 15:17:00,
2013-01-21 10:18:00,15.1,11.4,29.96,SW,230,6.0,13.0,85,0.00,,---,0.00,VWS V14.00,2013-01-21 15:18:00,
2013-01-21 10:22:00,15.2,11.5,29.96,WNW,285,9.0,13.0,85,0.00,,---,0.00,VWS V14.00,2013-01-21 15:22:00,
2013-01-21 10:23:00,15.2,11.5,29.96,SW,220,10.0,13.0,85,0.00,,---,0.00,VWS V14.00,2013-01-21 15:23:00,
2013-01-21 10:27:00,15.2,11.5,29.96,SW,229,4.0,13.0,85,0.00,,---,0.00,VWS V14.00,2013-01-21 15:27:00,
2013-01-21 10:28:00,15.2,11.5,29.96,WSW,240,4.0,13.0,85,0.00,,---,0.00,VWS V14.00,2013-01-21 15:28:00,
2013-01-21 10:32:00,15.2,11.5,29.95,WNW,285,4.0,13.0,85,0.00,,---,0.00,VWS V14.00,2013-01-21 15:32:00,
2013-01-21 10:33:00,15.2,11.5,29.95,SW,230,9.0,13.0,85,0.00,,---,0.00,VWS V14.00,2013-01-21 15:33:00,
2013-01-21 10:37:00,15.2,11.5,29.95,SW,229,9.0,13.0,85,0.00,,---,0.00,VWS V14.00,2013-01-21 15:37:00,
2013-01-21 10:38:00,15.2,11.5,29.95,SW,226,7.0,13.0,85,0.00,,---,0.00,VWS V14.00,2013-01-21 15:38:00,
2013-01-21 10:42:00,15.2,11.5,29.95,WNW,287,6.0,13.0,85,0.00,,---,0.00,VWS V14.00,2013-01-21 15:42:00,
2013-01-21 10:43:00,15.2,11.5,29.95,West,281,6.0,13.0,85,0.00,,---,0.00,VWS V14.00,2013-01-21 15:43:00,
2013-01-21 10:47:00,15.4,11.7,29.95,SW,227,7.0,13.0,85,0.00,,---,0.00,VWS V14.00,2013-01-21 15:47:00,
2013-01-21 10:48:00,15.4,11.7,29.95,WSW,244,7.0,13.0,85,0.00,,---,0.00,VWS V14.00,2013-01-21 15:48:00,
2013-01-21 10:52:00,15.4,11.7,29.95,West,275,8.0,13.0,85,0.00,,---,0.00,VWS V14.00,2013-01-21 15:52:00,
2013-01-21 10:53:00,15.4,11.7,29.95,West,281,7.0,13.0,85,0.00,,---,0.00,VWS V14.00,2013-01-21 15:53:00,
2013-01-21 10:57:00,15.4,11.7,29.95,North,354,7.0,13.0,85,0.00,,---,0.00,VWS V14.00,2013-01-21 15:57:00,
2013-01-21 10:58:00,15.2,11.5,29.95,NW,308,10.0,13.0,85,0.00,,---,0.00,VWS V14.00,2013-01-21 15:58:00,
2013-01-21 10:59:00,15.2,11.5,29.95,WNW,296,9.0,13.0,85,0.00,,---,0.00,VWS V14.00,2013-01-21 15:59:00,
2013-01-21 11:02:00,15.1,11.4,29.95,NW,319,4.0,9.0,85,0.00,,---,0.00,VWS V14.00,2013-01-21 16:02:00,
2013-01-21 11:03:00,15.1,11.4,29.95,NW,316,6.0,9.0,85,0.00,,---,0.00,VWS V14.00,2013-01-21 16:03:00,
2013-01-21 11:04:00,15.1,11.4,29.95,NW,309,4.0,9.0,85,0.00,,---,0.00,VWS V14.00,2013-01-21 16:04:00,
2013-01-21 11:07:00,14.9,11.2,29.95,NW,323,10.0,13.0,85,0.00,,---,0.00,VWS V14.00,2013-01-21 16:07:00,
2013-01-21 11:08:00,14.9,11.2,29.95,WNW,302,8.0,13.0,85,0.00,,---,0.00,VWS V14.00,2013-01-21 16:08:00,
2013-01-21 11:09:00,14.9,11.2,29.95,NNW,344,4.0,13.0,85,0.00,,---,0.00,VWS V14.00,2013-01-21 16:09:00,
2013-01-21 11:13:00,14.9,11.2,29.95,North,0,2.0,13.0,85,0.00,,---,0.00,VWS V14.00,2013-01-21 16:13:00,
2013-01-21 11:14:00,15.1,11.4,29.95,NW,319,6.0,13.0,85,0.00,,---,0.00,VWS V14.00,2013-01-21 16:14:00,
2013-01-21 11:18:00,15.1,11.4,29.95,WNW,288,7.0,14.0,85,0.00,,---,0.00,VWS V14.00,2013-01-21 16:18:00,
2013-01-21 11:19:00,14.9,11.2,29.95,WNW,296,7.0,14.0,85,0.00,,---,0.00,VWS V14.00,2013-01-21 16:19:00,
2013-01-21 11:23:00,14.9,11.2,29.95,West,281,8.0,14.0,85,0.00,,---,0.00,VWS V14.00,2013-01-21 16:23:00,
2013-01-21 11:24:00,14.9,11.2,29.95,WNW,291,10.0,14.0,85,0.00,,---,0.00,VWS V14.00,2013-01-21 16:24:00,
2013-01-21 11:28:00,14.8,10.9,29.95,WNW,296,8.0,14.0,84,0.00,,---,0.00,VWS V14.00,2013-01-21 16:28:00,
2013-01-21 11:29:00,14.8,10.9,29.94,WNW,298,4.0,14.0,84,0.00,,---,0.00,VWS V14.00,2013-01-21 16:29:00,
2013-01-21 11:30:00,14.8,10.9,29.94,NW,322,8.0,14.0,84,0.00,,---,0.00,VWS V14.00,2013-01-21 16:30:00,
2013-01-21 11:33:00,14.8,10.9,29.94,WSW,256,6.0,14.0,84,0.00,,---,0.00,VWS V14.00,2013-01-21 16:33:00,
2013-01-21 11:34:00,14.8,10.9,29.94,WNW,292,7.0,14.0,84,0.00,,---,0.00,VWS V14.00,2013-01-21 16:34:00,
2013-01-21 11:35:00,14.8,10.9,29.94,WNW,284,9.0,14.0,84,0.00,,---,0.00,VWS V14.00,2013-01-21 16:35:00,
2013-01-21 11:38:00,14.8,10.9,29.94,NW,313,9.0,14.0,84,0.00,,---,0.00,VWS V14.00,2013-01-21 16:38:00,
2013-01-21 11:39:00,14.8,10.9,29.94,WNW,299,8.0,14.0,84,0.00,,---,0.00,VWS V14.00,2013-01-21 16:39:00,
2013-01-21 11:40:00,14.8,10.9,29.94,WNW,294,9.0,14.0,84,0.00,,---,0.00,VWS V14.00,2013-01-21 16:40:00,
2013-01-21 11:43:00,14.8,10.9,29.94,NW,315,8.0,14.0,84,0.00,,---,0.00,VWS V14.00,2013-01-21 16:43:00,
2013-01-21 11:44:00,14.8,10.9,29.93,WNW,296,7.0,14.0,84,0.00,,---,0.00,VWS V14.00,2013-01-21 16:44:00,
2013-01-21 11:45:00,14.8,10.9,29.93,WNW,298,2.0,14.0,84,0.00,,---,0.00,VWS V14.00,2013-01-21 16:45:00,
2013-01-21 11:48:00,14.8,10.9,29.93,WNW,295,7.0,14.0,84,0.00,,---,0.00,VWS V14.00,2013-01-21 16:48:00,
2013-01-21 11:49:00,14.8,10.9,29.93,NW,312,6.0,14.0,84,0.00,,---,0.00,VWS V14.00,2013-01-21 16:49:00,
2013-01-21 11:50:00,14.8,10.9,29.93,NNW,329,2.0,14.0,84,0.00,,---,0.00,VWS V14.00,2013-01-21 16:50:00,
2013-01-21 11:53:00,14.9,10.9,29.93,NW,325,6.0,14.0,84,0.00,,---,0.00,VWS V14.00,2013-01-21 16:53:00,
2013-01-21 11:54:00,14.9,10.9,29.93,WNW,294,6.0,14.0,84,0.00,,---,0.00,VWS V14.00,2013-01-21 16:54:00,
2013-01-21 11:56:00,14.9,10.7,29.93,NW,326,2.0,14.0,83,0.00,,---,0.00,VWS V14.00,2013-01-21 16:56:00,
2013-01-21 11:58:00,15.1,10.9,29.93,WNW,292,6.0,14.0,83,0.00,,---,0.00,VWS V14.00,2013-01-21 16:58:00,
2013-01-21 11:59:00,15.1,10.9,29.93,WNW,292,6.0,14.0,83,0.00,,---,0.00,VWS V14.00,2013-01-21 16:59:00,
2013-01-21 12:00:00,15.1,10.9,29.93,WNW,292,6.0,14.0,83,0.00,,---,0.00,VWS V14.00,2013-01-21 17:00:00,
2013-01-21 12:01:00,15.1,10.9,29.93,WNW,287,2.0,4.0,83,0.00,,---,0.00,VWS V14.00,2013-01-21 17:01:00,
2013-01-21 12:04:00,15.1,10.9,29.93,NW,316,8.0,9.0,83,0.00,,---,0.00,VWS V14.00,2013-01-21 17:04:00,
2013-01-21 12:05:00,15.1,10.9,29.93,NW,316,8.0,9.0,83,0.00,,---,0.00,VWS V14.00,2013-01-21 17:05:00,
2013-01-21 12:06:00,15.2,11.2,29.93,WNW,284,10.0,13.0,84,0.00,,---,0.00,VWS V14.00,2013-01-21 17:06:00,
2013-01-21 12:09:00,15.2,11.0,29.93,WNW,294,11.0,13.0,83,0.00,,---,0.00,VWS V14.00,2013-01-21 17:09:00,
2013-01-21 12:10:00,15.2,11.0,29.93,WNW,298,7.0,13.0,83,0.00,,---,0.00,VWS V14.00,2013-01-21 17:10:00,
2013-01-21 12:11:00,15.2,11.0,29.93,WNW,288,9.0,13.0,83,0.00,,---,0.00,VWS V14.00,2013-01-21 17:11:00,
2013-01-21 12:14:00,15.1,10.9,29.93,West,265,15.0,17.0,83,0.00,,---,0.00,VWS V14.00,2013-01-21 17:14:00,
2013-01-21 12:15:00,14.9,10.4,29.93,WNW,285,10.0,17.0,82,0.00,,---,0.00,VWS V14.00,2013-01-21 17:15:00,
2013-01-21 12:16:00,14.9,10.7,29.93,WNW,287,13.0,17.0,83,0.00,,---,0.00,VWS V14.00,2013-01-21 17:16:00,
2013-01-21 12:19:00,14.9,10.7,29.93,West,274,8.0,18.0,83,0.00,,---,0.00,VWS V14.00,2013-01-21 17:19:00,
2013-01-21 12:20:00,14.8,10.6,29.93,West,277,9.0,18.0,83,0.00,,---,0.00,VWS V14.00,2013-01-21 17:20:00,
2013-01-21 12:22:00,14.8,10.6,29.93,SW,226,8.0,18.0,83,0.00,,---,0.00,VWS V14.00,2013-01-21 17:22:00,
2013-01-21 12:24:00,14.6,10.4,29.93,WNW,301,8.0,18.0,83,0.00,,---,0.00,VWS V14.00,2013-01-21 17:24:00,
2013-01-21 12:25:00,14.6,10.4,29.93,WNW,287,10.0,18.0,83,0.00,,---,0.00,VWS V14.00,2013-01-21 17:25:00,
2013-01-21 12:27:00,14.6,10.4,29.93,West,261,8.0,18.0,83,0.00,,---,0.00,VWS V14.00,2013-01-21 17:27:00,
2013-01-21 12:29:00,14.6,10.4,29.93,NW,309,7.0,18.0,83,0.00,,---,0.00,VWS V14.00,2013-01-21 17:29:00,
2013-01-21 12:30:00,14.6,10.4,29.93,WNW,302,8.0,18.0,83,0.00,,---,0.00,VWS V14.00,2013-01-21 17:30:00,
2013-01-21 12:32:00,14.6,10.4,29.93,WNW,296,8.0,18.0,83,0.00,,---,0.00,VWS V14.00,2013-01-21 17:32:00,
2013-01-21 12:34:00,14.6,10.4,29.93,WNW,301,7.0,18.0,83,0.00,,---,0.00,VWS V14.00,2013-01-21 17:34:00,
2013-01-21 12:35:00,14.8,10.9,29.93,West,277,6.0,18.0,84,0.00,,---,0.00,VWS V14.00,2013-01-21 17:35:00,
2013-01-21 12:37:00,14.8,10.9,29.93,WNW,282,11.0,18.0,84,0.00,,---,0.00,VWS V14.00,2013-01-21 17:37:00,
2013-01-21 12:39:00,14.8,10.6,29.93,West,278,11.0,18.0,83,0.00,,---,0.00,VWS V14.00,2013-01-21 17:39:00,
2013-01-21 12:40:00,14.8,10.6,29.93,NW,326,9.0,18.0,83,0.00,,---,0.00,VWS V14.00,2013-01-21 17:40:00,
2013-01-21 12:42:00,14.8,10.6,29.93,NW,304,6.0,18.0,83,0.00,,---,0.00,VWS V14.00,2013-01-21 17:42:00,
2013-01-21 12:44:00,14.8,10.6,29.93,WNW,284,11.0,18.0,83,0.00,,---,0.00,VWS V14.00,2013-01-21 17:44:00,
2013-01-21 12:45:00,14.9,10.7,29.92,WNW,292,9.0,18.0,83,0.00,,---,0.00,VWS V14.00,2013-01-21 17:45:00,
2013-01-21 12:47:00,14.9,10.7,29.92,NW,308,18.0,18.0,83,0.00,,---,0.00,VWS V14.00,2013-01-21 17:47:00,
2013-01-21 12:49:00,14.8,10.3,29.92,WNW,284,13.0,18.0,82,0.00,,---,0.00,VWS V14.00,2013-01-21 17:49:00,
2013-01-21 12:50:00,14.8,10.3,29.92,WNW,287,15.0,18.0,82,0.00,,---,0.00,VWS V14.00,2013-01-21 17:50:00,
2013-01-21 12:51:00,14.8,10.3,29.92,SW,229,11.0,18.0,82,0.00,,---,0.00,VWS V14.00,2013-01-21 17:51:00,
2013-01-21 12:52:00,14.8,10.3,29.92,WNW,289,7.0,18.0,82,0.00,,---,0.00,VWS V14.00,2013-01-21 17:52:00,
2013-01-21 12:54:00,14.6,9.8,29.92,West,277,10.0,18.0,81,0.00,,---,0.00,VWS V14.00,2013-01-21 17:54:00,
2013-01-21 12:55:00,14.6,9.8,29.92,West,277,9.0,18.0,81,0.00,,---,0.00,VWS V14.00,2013-01-21 17:55:00,
2013-01-21 12:56:00,14.6,9.8,29.92,WSW,250,11.0,18.0,81,0.00,,---,0.00,VWS V14.00,2013-01-21 17:56:00,
2013-01-21 12:57:00,14.8,10.0,29.92,WNW,298,8.0,18.0,81,0.00,,---,0.00,VWS V14.00,2013-01-21 17:57:00,
2013-01-21 12:59:00,14.9,10.1,29.92,SW,233,8.0,18.0,81,0.00,,---,0.00,VWS V14.00,2013-01-21 17:59:00,
2013-01-21 13:00:00,15.1,10.3,29.92,SW,223,6.0,18.0,81,0.00,,---,0.00,VWS V14.00,2013-01-21 18:00:00,
2013-01-21 13:01:00,15.1,10.3,29.92,WNW,294,9.0,15.0,81,0.00,,---,0.00,VWS V14.00,2013-01-21 18:01:00,
2013-01-21 13:02:00,15.2,10.4,29.92,West,272,13.0,18.0,81,0.00,,---,0.00,VWS V14.00,2013-01-21 18:02:00,
2013-01-21 13:04:00,15.6,10.5,29.92,WNW,282,13.0,18.0,80,0.00,,---,0.00,VWS V14.00,2013-01-21 18:04:00,
2013-01-21 13:05:00,15.6,10.5,29.92,SW,236,10.0,18.0,80,0.00,,---,0.00,VWS V14.00,2013-01-21 18:05:00,
2013-01-21 13:06:00,15.7,10.6,29.92,West,268,7.0,18.0,80,0.00,,---,0.00,VWS V14.00,2013-01-21 18:06:00,
2013-01-21 13:07:00,15.9,10.8,29.92,WSW,243,7.0,18.0,80,0.00,,---,0.00,VWS V14.00,2013-01-21 18:07:00,
2013-01-21 13:09:00,16.2,10.8,29.92,WNW,291,13.0,18.0,79,0.00,,---,0.00,VWS V14.00,2013-01-21 18:09:00,
2013-01-21 13:10:00,16.4,10.8,29.92,WNW,299,7.0,18.0,78,0.00,,---,0.00,VWS V14.00,2013-01-21 18:10:00,
2013-01-21 13:11:00,16.4,10.8,29.92,WNW,295,7.0,18.0,78,0.00,,---,0.00,VWS V14.00,2013-01-21 18:11:00,
2013-01-21 13:12:00,16.5,10.9,29.92,WNW,302,4.0,18.0,78,0.00,,---,0.00,VWS V14.00,2013-01-21 18:12:00,
2013-01-21 13:15:00,17.0,11.3,29.90,WNW,302,9.0,18.0,78,0.00,,---,0.00,VWS V14.00,2013-01-21 18:15:00,
2013-01-21 13:16:00,17.0,11.1,29.90,West,270,8.0,18.0,77,0.00,,---,0.00,VWS V14.00,2013-01-21 18:16:00,
2013-01-21 13:17:00,17.0,10.8,29.90,WNW,282,8.0,18.0,76,0.00,,---,0.00,VWS V14.00,2013-01-21 18:17:00,
2013-01-21 13:20:00,17.0,10.8,29.90,WNW,289,7.0,18.0,76,0.00,,---,0.00,VWS V14.00,2013-01-21 18:20:00,
2013-01-21 13:21:00,17.5,11.2,29.90,NW,305,4.0,18.0,76,0.00,,---,0.00,VWS V14.00,2013-01-21 18:21:00,
2013-01-21 13:22:00,17.7,11.7,29.90,NW,306,7.0,18.0,77,0.00,,---,0.00,VWS V14.00,2013-01-21 18:22:00,
2013-01-21 13:25:00,18.0,11.7,29.90,NW,315,6.0,18.0,76,0.00,,---,0.00,VWS V14.00,2013-01-21 18:25:00,
2013-01-21 13:26:00,18.1,11.8,29.90,WNW,289,7.0,18.0,76,0.01,,---,0.01,VWS V14.00,2013-01-21 18:26:00,
2013-01-21 13:27:00,18.3,12.0,29.90,WNW,287,10.0,18.0,76,0.01,,---,0.01,VWS V14.00,2013-01-21 18:27:00,
2013-01-21 13:30:00,18.4,12.1,29.91,West,277,13.0,18.0,76,0.01,,---,0.01,VWS V14.00,2013-01-21 18:30:00,
2013-01-21 13:31:00,18.4,12.1,29.91,West,281,11.0,18.0,76,0.01,,---,0.01,VWS V14.00,2013-01-21 18:31:00,
2013-01-21 13:32:00,18.1,11.5,29.91,WNW,291,1.0,18.0,75,0.01,,---,0.01,VWS V14.00,2013-01-21 18:32:00,
2013-01-21 13:35:00,18.0,11.4,29.91,NW,304,13.0,18.0,75,0.01,,---,0.01,VWS V14.00,2013-01-21 18:35:00,
2013-01-21 13:36:00,17.8,11.2,29.91,North,357,2.0,18.0,75,0.01,,---,0.01,VWS V14.00,2013-01-21 18:36:00,
2013-01-21 13:37:00,17.8,11.2,29.91,NNW,337,4.0,18.0,75,0.01,,---,0.01,VWS V14.00,2013-01-21 18:37:00,
2013-01-21 13:38:00,17.7,11.1,29.91,WNW,292,13.0,18.0,75,0.01,,---,0.01,VWS V14.00,2013-01-21 18:38:00,
2013-01-21 13:40:00,17.2,10.6,29.91,NNW,332,8.0,18.0,75,0.01,,---,0.01,VWS V14.00,2013-01-21 18:40:00,
2013-01-21 13:41:00,17.0,10.5,29.91,WNW,295,13.0,18.0,75,0.01,,---,0.01,VWS V14.00,2013-01-21 18:41:00,
2013-01-21 13:42:00,16.9,10.4,29.91,NW,306,11.0,18.0,75,0.01,,---,0.01,VWS V14.00,2013-01-21 18:42:00,
2013-01-21 13:43:00,16.7,10.2,29.91,NW,305,8.0,18.0,75,0.01,,---,0.01,VWS V14.00,2013-01-21 18:43:00,
2013-01-21 13:45:00,16.5,10.3,29.91,WNW,298,7.0,18.0,76,0.01,,---,0.01,VWS V14.00,2013-01-21 18:45:00,
2013-01-21 13:46:00,16.4,10.2,29.91,West,281,7.0,18.0,76,0.01,,---,0.01,VWS V14.00,2013-01-21 18:46:00,
2013-01-21 13:47:00,16.4,10.2,29.91,WNW,296,6.0,18.0,76,0.01,,---,0.01,VWS V14.00,2013-01-21 18:47:00,
2013-01-21 13:48:00,16.2,10.0,29.91,WNW,295,6.0,18.0,76,0.01,,---,0.01,VWS V14.00,2013-01-21 18:48:00,
2013-01-21 13:50:00,16.1,9.9,29.91,WNW,289,13.0,18.0,76,0.01,,---,0.01,VWS V14.00,2013-01-21 18:50:00,
2013-01-21 13:51:00,16.1,9.9,29.91,NW,308,6.0,18.0,76,0.01,,---,0.01,VWS V14.00,2013-01-21 18:51:00,
2013-01-21 13:52:00,15.9,10.0,29.91,WNW,302,10.0,18.0,77,0.01,,---,0.01,VWS V14.00,2013-01-21 18:52:00,
2013-01-21 13:53:00,15.9,9.7,29.91,NW,315,11.0,18.0,76,0.01,,---,0.01,VWS V14.00,2013-01-21 18:53:00,
2013-01-21 13:55:00,15.7,9.8,29.91,West,271,14.0,18.0,77,0.01,,---,0.01,VWS V14.00,2013-01-21 18:55:00,
2013-01-21 13:56:00,15.4,9.5,29.91,WNW,299,11.0,18.0,77,0.01,,---,0.01,VWS V14.00,2013-01-21 18:56:00,
2013-01-21 13:57:00,15.2,9.3,29.91,WNW,287,13.0,18.0,77,0.01,,---,0.01,VWS V14.00,2013-01-21 18:57:00,
2013-01-21 13:58:00,15.2,9.3,29.91,North,0,4.0,18.0,77,0.01,,---,0.01,VWS V14.00,2013-01-21 18:58:00,
2013-01-21 14:00:00,14.9,9.0,29.92,WNW,291,16.0,20.0,77,0.01,,---,0.01,VWS V14.00,2013-01-21 19:00:00,
2013-01-21 14:01:00,14.8,9.2,29.92,NW,306,1.0,14.0,78,0.01,,---,0.01,VWS V14.00,2013-01-21 19:01:00,
2013-01-21 14:03:00,14.6,9.0,29.92,WNW,291,18.0,20.0,78,0.01,,---,0.01,VWS V14.00,2013-01-21 19:03:00,
2013-01-21 14:05:00,14.4,8.8,29.92,WNW,282,15.0,20.0,78,0.01,,---,0.01,VWS V14.00,2013-01-21 19:05:00,
2013-01-21 14:07:00,14.3,9.0,29.92,NW,319,6.0,20.0,79,0.01,,---,0.01,VWS V14.00,2013-01-21 19:07:00,
2013-01-21 14:08:00,14.3,9.0,29.92,WNW,298,10.0,20.0,79,0.01,,---,0.01,VWS V14.00,2013-01-21 19:08:00,
2013-01-21 14:11:00,14.0,8.7,29.92,WNW,301,11.0,20.0,79,0.01,,---,0.01,VWS V14.00,2013-01-21 19:11:00,
2013-01-21 14:12:00,14.0,8.7,29.92,WNW,288,9.0,20.0,79,0.01,,---,0.01,VWS V14.00,2013-01-21 19:12:00,
2013-01-21 14:13:00,14.0,8.7,29.92,WNW,292,10.0,20.0,79,0.01,,---,0.01,VWS V14.00,2013-01-21 19:13:00,
2013-01-21 14:14:00,14.0,8.7,29.92,NW,325,8.0,20.0,79,0.01,,---,0.01,VWS V14.00,2013-01-21 19:14:00,
2013-01-21 14:16:00,13.8,8.5,29.92,WNW,284,7.0,20.0,79,0.01,,---,0.01,VWS V14.00,2013-01-21 19:16:00,
2013-01-21 14:17:00,13.8,8.5,29.92,West,280,7.0,20.0,79,0.01,,---,0.01,VWS V14.00,2013-01-21 19:17:00,
2013-01-21 14:18:00,13.8,8.5,29.92,SW,217,7.0,20.0,79,0.01,,---,0.01,VWS V14.00,2013-01-21 19:18:00,
2013-01-21 14:19:00,13.8,8.5,29.92,WNW,289,11.0,20.0,79,0.01,,---,0.01,VWS V14.00,2013-01-21 19:19:00,
2013-01-21 14:21:00,13.8,8.5,29.92,West,280,6.0,20.0,79,0.01,,---,0.01,VWS V14.00,2013-01-21 19:21:00,
2013-01-21 14:22:00,13.8,8.5,29.92,West,271,10.0,20.0,79,0.01,,---,0.01,VWS V14.00,2013-01-21 19:22:00,
2013-01-21 14:23:00,13.8,8.5,29.92,West,281,10.0,20.0,79,0.01,,---,0.01,VWS V14.00,2013-01-21 19:23:00,
2013-01-21 14:24:00,13.8,8.5,29.92,WNW,289,9.0,20.0,79,0.01,,---,0.01,VWS V14.00,2013-01-21 19:24:00,
2013-01-21 14:26:00,13.8,8.5,29.92,West,277,6.0,20.0,79,0.01,,---,0.01,VWS V14.00,2013-01-21 19:26:00,
2013-01-21 14:27:00,13.8,8.5,29.92,WNW,288,9.0,20.0,79,0.01,,---,0.01,VWS V14.00,2013-01-21 19:27:00,
2013-01-21 14:28:00,13.8,8.5,29.92,WNW,301,4.0,20.0,79,0.01,,---,0.01,VWS V14.00,2013-01-21 19:28:00,
2013-01-21 14:29:00,13.8,8.5,29.92,West,277,7.0,20.0,79,0.01,,---,0.01,VWS V14.00,2013-01-21 19:29:00,
2013-01-21 14:32:00,14.0,9.0,29.93,West,280,2.0,20.0,80,0.01,,---,0.01,VWS V14.00,2013-01-21 19:32:00,
2013-01-21 14:33:00,14.1,9.1,29.93,WNW,301,6.0,20.0,80,0.01,,---,0.01,VWS V14.00,2013-01-21 19:33:00,
2013-01-21 14:34:00,14.3,9.3,29.93,WSW,243,7.0,20.0,80,0.01,,---,0.01,VWS V14.00,2013-01-21 19:34:00,
2013-01-21 14:37:00,14.6,9.6,29.93,WNW,294,11.0,20.0,80,0.01,,---,0.01,VWS V14.00,2013-01-21 19:37:00,
2013-01-21 14:38:00,14.6,9.6,29.93,West,275,17.0,20.0,80,0.01,,---,0.01,VWS V14.00,2013-01-21 19:38:00,
2013-01-21 14:39:00,14.6,9.3,29.93,SW,227,8.0,20.0,79,0.01,,---,0.01,VWS V14.00,2013-01-21 19:39:00,
2013-01-21 14:42:00,14.6,9.3,29.93,WNW,288,1.0,20.0,79,0.01,,---,0.01,VWS V14.00,2013-01-21 19:42:00,
2013-01-21 14:43:00,14.6,9.3,29.93,WNW,287,9.0,20.0,79,0.01,,---,0.01,VWS V14.00,2013-01-21 19:43:00,
2013-01-21 14:44:00,14.6,9.3,29.93,WNW,285,17.0,20.0,79,0.01,,---,0.01,VWS V14.00,2013-01-21 19:44:00,
2013-01-21 14:47:00,14.4,8.8,29.93,NW,308,17.0,28.0,78,0.01,,---,0.01,VWS V14.00,2013-01-21 19:47:00,
2013-01-21 14:48:00,14.4,8.8,29.93,NNW,329,9.0,28.0,78,0.01,,---,0.01,VWS V14.00,2013-01-21 19:48:00,
2013-01-21 14:49:00,14.1,8.5,29.93,NW,312,15.0,28.0,78,0.01,,---,0.01,VWS V14.00,2013-01-21 19:49:00,
2013-01-21 14:52:00,14.0,8.4,29.93,West,275,14.0,28.0,78,0.01,,---,0.01,VWS V14.00,2013-01-21 19:52:00,
2013-01-21 14:53:00,14.0,8.4,29.93,West,272,11.0,28.0,78,0.01,,---,0.01,VWS V14.00,2013-01-21 19:53:00,
2013-01-21 14:54:00,13.8,8.2,29.93,NW,312,8.0,28.0,78,0.01,,---,0.01,VWS V14.00,2013-01-21 19:54:00,
2013-01-21 14:58:00,13.6,8.3,29.93,NW,312,6.0,28.0,79,0.01,,---,0.01,VWS V14.00,2013-01-21 19:58:00,
2013-01-21 15:00:00,13.6,8.3,29.94,WNW,299,9.0,28.0,79,0.01,,---,0.01,VWS V14.00,2013-01-21 20:00:00,
2013-01-21 15:03:00,13.6,8.3,29.94,WNW,291,8.0,14.0,79,0.00,,---,0.01,VWS V14.00,2013-01-21 20:03:00,
2013-01-21 15:04:00,13.8,8.5,29.94,WNW,292,11.0,15.0,79,0.00,,---,0.01,VWS V14.00,2013-01-21 20:04:00,
2013-01-21 15:05:00,13.8,8.5,29.94,NW,309,8.0,15.0,79,0.00,,---,0.01,VWS V14.00,2013-01-21 20:05:00,
2013-01-21 15:08:00,13.8,8.2,29.94,WNW,296,14.0,20.0,78,0.00,,---,0.01,VWS V14.00,2013-01-21 20:08:00,
2013-01-21 15:09:00,13.6,7.7,29.94,WNW,288,15.0,23.0,77,0.00,,---,0.01,VWS V14.00,2013-01-21 20:09:00,
2013-01-21 15:10:00,13.6,7.7,29.94,West,268,11.0,23.0,77,0.00,,---,0.01,VWS V14.00,2013-01-21 20:10:00,
2013-01-21 15:13:00,13.5,7.1,29.94,NW,313,18.0,23.0,75,0.00,,---,0.01,VWS V14.00,2013-01-21 20:13:00,
2013-01-21 15:14:00,13.3,6.9,29.94,NW,306,18.0,23.0,75,0.00,,---,0.01,VWS V14.00,2013-01-21 20:14:00,
2013-01-21 15:15:00,13.3,6.9,29.95,NW,316,14.0,23.0,75,0.00,,---,0.01,VWS V14.00,2013-01-21 20:15:00,
2013-01-21 15:18:00,13.1,6.7,29.95,WNW,285,22.0,23.0,75,0.00,,---,0.01,VWS V14.00,2013-01-21 20:18:00,
2013-01-21 15:19:00,13.1,6.7,29.95,WNW,292,15.0,23.0,75,0.00,,---,0.01,VWS V14.00,2013-01-21 20:19:00,
2013-01-21 15:20:00,12.9,6.5,29.95,WNW,282,17.0,23.0,75,0.00,,---,0.01,VWS V14.00,2013-01-21 20:20:00,
2013-01-21 15:23:00,12.8,6.4,29.95,WNW,282,16.0,23.0,75,0.00,,---,0.01,VWS V14.00,2013-01-21 20:23:00,
2013-01-21 15:24:00,12.8,6.4,29.95,West,274,11.0,23.0,75,0.00,,---,0.01,VWS V14.00,2013-01-21 20:24:00,
2013-01-21 15:26:00,12.6,6.5,29.95,West,274,10.0,23.0,76,0.00,,---,0.01,VWS V14.00,2013-01-21 20:26:00,
2013-01-21 15:28:00,12.6,6.5,29.95,WNW,288,8.0,23.0,76,0.00,,---,0.01,VWS V14.00,2013-01-21 20:28:00,
2013-01-21 15:29:00,12.6,6.5,29.95,WNW,294,14.0,23.0,76,0.00,,---,0.01,VWS V14.00,2013-01-21 20:29:00,
2013-01-21 15:31:00,12.4,6.3,29.95,WSW,253,8.0,23.0,76,0.00,,---,0.01,VWS V14.00,2013-01-21 20:31:00,
2013-01-21 15:33:00,12.4,6.3,29.95,WNW,292,7.0,23.0,76,0.00,,---,0.01,VWS V14.00,2013-01-21 20:33:00,
2013-01-21 15:34:00,12.4,6.3,29.95,WSW,240,9.0,23.0,76,0.00,,---,0.01,VWS V14.00,2013-01-21 20:34:00,
2013-01-21 15:35:00,12.4,6.3,29.95,WNW,284,8.0,23.0,76,0.00,,---,0.01,VWS V14.00,2013-01-21 20:35:00,
2013-01-21 15:36:00,12.4,6.3,29.95,WNW,295,9.0,23.0,76,0.00,,---,0.01,VWS V14.00,2013-01-21 20:36:00,
2013-01-21 15:38:00,12.6,6.5,29.95,WNW,284,7.0,23.0,76,0.00,,---,0.01,VWS V14.00,2013-01-21 20:38:00,
2013-01-21 15:39:00,12.6,6.5,29.95,NNW,332,15.0,23.0,76,0.00,,---,0.01,VWS V14.00,2013-01-21 20:39:00,
2013-01-21 15:40:00,12.6,6.2,29.95,West,275,18.0,23.0,75,0.00,,---,0.01,VWS V14.00,2013-01-21 20:40:00,
2013-01-21 15:41:00,12.4,6.0,29.95,West,274,8.0,23.0,75,0.00,,---,0.01,VWS V14.00,2013-01-21 20:41:00,
2013-01-21 15:43:00,12.4,6.0,29.95,West,274,8.0,23.0,75,0.00,,---,0.01,VWS V14.00,2013-01-21 20:43:00,
2013-01-21 15:44:00,12.3,5.6,29.95,NW,306,11.0,23.0,74,0.00,,---,0.01,VWS V14.00,2013-01-21 20:44:00,
2013-01-21 15:45:00,12.3,5.6,29.96,West,272,10.0,23.0,74,0.00,,---,0.01,VWS V14.00,2013-01-21 20:45:00,
2013-01-21 15:46:00,12.3,5.6,29.96,SW,217,8.0,23.0,74,0.00,,---,0.01,VWS V14.00,2013-01-21 20:46:00,
2013-01-21 15:48:00,12.3,5.6,29.96,WNW,292,11.0,23.0,74,0.00,,---,0.01,VWS V14.00,2013-01-21 20:48:00,
2013-01-21 15:49:00,12.3,5.6,29.96,WNW,289,14.0,23.0,74,0.00,,---,0.01,VWS V14.00,2013-01-21 20:49:00,
2013-01-21 15:50:00,12.1,5.4,29.96,WNW,282,11.0,23.0,74,0.00,,---,0.01,VWS V14.00,2013-01-21 20:50:00,
2013-01-21 15:51:00,12.1,5.4,29.96,WNW,292,14.0,23.0,74,0.00,,---,0.01,VWS V14.00,2013-01-21 20:51:00,
2013-01-21 15:53:00,12.1,5.4,29.96,WNW,294,11.0,23.0,74,0.00,,---,0.01,VWS V14.00,2013-01-21 20:53:00,
2013-01-21 15:54:00,12.1,5.4,29.96,WSW,248,21.0,23.0,74,0.00,,---,0.01,VWS V14.00,2013-01-21 20:54:00,
2013-01-21 15:55:00,12.1,5.4,29.96,WNW,292,11.0,23.0,74,0.00,,---,0.01,VWS V14.00,2013-01-21 20:55:00,
2013-01-21 15:57:00,12.1,5.1,29.96,WNW,288,10.0,23.0,73,0.00,,---,0.01,VWS V14.00,2013-01-21 20:57:00,
2013-01-21 15:58:00,12.1,5.1,29.96,WNW,284,11.0,23.0,73,0.00,,---,0.01,VWS V14.00,2013-01-21 20:58:00,
2013-01-21 15:59:00,11.9,4.9,29.97,West,281,8.0,23.0,73,0.00,,---,0.01,VWS V14.00,2013-01-21 20:59:00,
2013-01-21 16:00:00,11.9,4.9,29.97,WNW,292,6.0,23.0,73,0.00,,---,0.01,VWS V14.00,2013-01-21 21:00:00,
2013-01-21 16:02:00,11.9,4.9,29.97,West,281,15.0,15.0,73,0.00,,---,0.01,VWS V14.00,2013-01-21 21:02:00,
2013-01-21 16:04:00,11.9,4.9,29.97,WNW,285,8.0,15.0,73,0.00,,---,0.01,VWS V14.00,2013-01-21 21:04:00,
2013-01-21 16:05:00,11.9,4.9,29.97,WNW,292,10.0,15.0,73,0.00,,---,0.01,VWS V14.00,2013-01-21 21:05:00,
2013-01-21 16:07:00,11.9,4.9,29.97,West,281,7.0,15.0,73,0.00,,---,0.01,VWS V14.00,2013-01-21 21:07:00,
2013-01-21 16:09:00,11.9,4.9,29.97,West,278,6.0,25.0,73,0.00,,---,0.01,VWS V14.00,2013-01-21 21:09:00,
2013-01-21 16:10:00,11.9,4.9,29.97,WNW,285,18.0,25.0,73,0.00,,---,0.01,VWS V14.00,2013-01-21 21:10:00,
2013-01-21 16:12:00,11.7,4.7,29.97,WNW,285,14.0,25.0,73,0.00,,---,0.01,VWS V14.00,2013-01-21 21:12:00,
2013-01-21 16:14:00,11.7,4.7,29.97,WNW,296,8.0,25.0,73,0.00,,---,0.01,VWS V14.00,2013-01-21 21:14:00,
2013-01-21 16:15:00,11.7,4.7,29.97,WSW,244,13.0,25.0,73,0.00,,---,0.01,VWS V14.00,2013-01-21 21:15:00,
2013-01-21 16:17:00,11.9,4.9,29.97,WNW,298,10.0,25.0,73,0.00,,---,0.01,VWS V14.00,2013-01-21 21:17:00,
2013-01-21 16:20:00,11.7,4.4,29.97,SW,219,11.0,25.0,72,0.00,,---,0.01,VWS V14.00,2013-01-21 21:20:00,
2013-01-21 16:22:00,11.7,4.1,29.97,SW,217,14.0,25.0,71,0.00,,---,0.01,VWS V14.00,2013-01-21 21:22:00,
2013-01-21 16:25:00,11.7,4.1,29.97,SSW,210,18.0,25.0,71,0.00,,---,0.01,VWS V14.00,2013-01-21 21:25:00,
2013-01-21 16:26:00,11.7,4.1,29.97,WNW,287,16.0,25.0,71,0.00,,---,0.01,VWS V14.00,2013-01-21 21:26:00,
2013-01-21 16:27:00,11.7,4.1,29.97,WNW,298,13.0,25.0,71,0.00,,---,0.01,VWS V14.00,2013-01-21 21:27:00,
2013-01-21 16:30:00,11.7,4.1,29.98,West,277,14.0,25.0,71,0.00,,---,0.01,VWS V14.00,2013-01-21 21:30:00,
2013-01-21 16:31:00,11.7,4.1,29.98,West,268,13.0,25.0,71,0.00,,---,0.01,VWS V14.00,2013-01-21 21:31:00,
2013-01-21 16:32:00,11.7,4.1,29.98,SW,229,16.0,25.0,71,0.00,,---,0.01,VWS V14.00,2013-01-21 21:32:00,
2013-01-21 16:35:00,11.7,4.1,29.98,SW,226,10.0,25.0,71,0.00,,---,0.01,VWS V14.00,2013-01-21 21:35:00,
2013-01-21 16:36:00,11.6,4.0,29.98,WSW,254,13.0,25.0,71,0.00,,---,0.01,VWS V14.00,2013-01-21 21:36:00,
2013-01-21 16:37:00,11.6,4.0,29.98,West,264,10.0,25.0,71,0.00,,---,0.01,VWS V14.00,2013-01-21 21:37:00,
2013-01-21 16:40:00,11.4,3.5,29.98,SW,222,13.0,25.0,70,0.00,,---,0.01,VWS V14.00,2013-01-21 21:40:00,
2013-01-21 16:41:00,11.4,3.5,29.98,WNW,292,9.0,25.0,70,0.00,,---,0.01,VWS V14.00,2013-01-21 21:41:00,
2013-01-21 16:42:00,11.4,3.5,29.98,West,275,16.0,25.0,70,0.00,,---,0.01,VWS V14.00,2013-01-21 21:42:00,
2013-01-21 16:45:00,11.4,3.5,29.98,WNW,298,16.0,25.0,70,0.00,,---,0.01,VWS V14.00,2013-01-21 21:45:00,
2013-01-21 16:46:00,11.4,3.5,29.98,WSW,241,14.0,25.0,70,0.00,,---,0.01,VWS V14.00,2013-01-21 21:46:00,
2013-01-21 16:47:00,11.4,3.5,29.98,WNW,289,23.0,25.0,70,0.00,,---,0.01,VWS V14.00,2013-01-21 21:47:00,
2013-01-21 16:50:00,11.4,3.5,29.98,West,268,11.0,25.0,70,0.00,,---,0.01,VWS V14.00,2013-01-21 21:50:00,
2013-01-21 16:51:00,11.2,3.3,29.98,West,281,11.0,25.0,70,0.00,,---,0.01,VWS V14.00,2013-01-21 21:51:00,
2013-01-21 16:52:00,11.2,3.3,29.98,West,275,18.0,25.0,70,0.00,,---,0.01,VWS V14.00,2013-01-21 21:52:00,
2013-01-21 16:55:00,11.1,3.2,29.98,WSW,243,10.0,29.0,70,0.00,,---,0.01,VWS V14.00,2013-01-21 21:55:00,
2013-01-21 16:56:00,11.1,3.5,29.98,West,280,11.0,29.0,71,0.00,,---,0.01,VWS V14.00,2013-01-21 21:56:00,
2013-01-21 16:57:00,11.1,3.5,29.98,WNW,287,8.0,29.0,71,0.00,,---,0.01,VWS V14.00,2013-01-21 21:57:00,
2013-01-21 17:00:00,10.9,3.7,29.98,West,260,13.0,17.0,72,0.00,,---,0.01,VWS V14.00,2013-01-21 22:00:00,
2013-01-21 17:01:00,10.9,3.7,29.98,WNW,284,13.0,21.0,72,0.00,,---,0.01,VWS V14.00,2013-01-21 22:01:00,
2013-01-21 17:03:00,10.7,3.8,29.98,SW,223,15.0,21.0,73,0.00,,---,0.01,VWS V14.00,2013-01-21 22:03:00,
2013-01-21 17:05:00,10.7,4.1,29.98,WSW,256,13.0,23.0,74,0.00,,---,0.01,VWS V14.00,2013-01-21 22:05:00,
2013-01-21 17:06:00,10.7,4.1,29.98,West,272,8.0,23.0,74,0.00,,---,0.01,VWS V14.00,2013-01-21 22:06:00,
2013-01-21 17:08:00,10.5,3.9,29.98,West,277,16.0,23.0,74,0.00,,---,0.01,VWS V14.00,2013-01-21 22:08:00,
2013-01-21 17:10:00,10.5,4.2,29.98,WNW,289,13.0,23.0,75,0.00,,---,0.01,VWS V14.00,2013-01-21 22:10:00,
2013-01-21 17:11:00,10.5,4.2,29.98,West,277,14.0,23.0,75,0.00,,---,0.01,VWS V14.00,2013-01-21 22:11:00,
2013-01-21 17:12:00,10.5,4.2,29.98,NW,308,9.0,23.0,75,0.00,,---,0.01,VWS V14.00,2013-01-21 22:12:00,
2013-01-21 17:13:00,10.5,3.9,29.98,West,278,10.0,23.0,74,0.00,,---,0.01,VWS V14.00,2013-01-21 22:13:00,
2013-01-21 17:15:00,10.4,3.5,29.99,West,275,14.0,23.0,73,0.00,,---,0.01,VWS V14.00,2013-01-21 22:15:00,
2013-01-21 17:16:00,10.4,3.5,29.99,West,274,13.0,23.0,73,0.00,,---,0.01,VWS V14.00,2013-01-21 22:16:00,
2013-01-21 17:17:00,10.4,3.5,29.99,WNW,288,13.0,23.0,73,0.00,,---,0.01,VWS V14.00,2013-01-21 22:17:00,
2013-01-21 17:18:00,10.4,3.2,29.99,WNW,294,11.0,23.0,72,0.00,,---,0.01,VWS V14.00,2013-01-21 22:18:00,
2013-01-21 17:21:00,10.2,3.0,29.99,WSW,244,11.0,23.0,72,0.00,,---,0.01,VWS V14.00,2013-01-21 22:21:00,
2013-01-21 17:22:00,10.2,2.7,29.99,SW,227,11.0,23.0,71,0.00,,---,0.01,VWS V14.00,2013-01-21 22:22:00,
2013-01-21 17:23:00,10.2,2.7,29.99,West,281,14.0,23.0,71,0.00,,---,0.01,VWS V14.00,2013-01-21 22:23:00,
2013-01-21 17:26:00,10.0,1.9,29.99,WNW,282,9.0,23.0,69,0.00,,---,0.01,VWS V14.00,2013-01-21 22:26:00,
2013-01-21 17:27:00,10.0,1.9,29.99,WNW,291,13.0,23.0,69,0.00,,---,0.01,VWS V14.00,2013-01-21 22:27:00,
2013-01-21 17:28:00,10.0,1.9,29.99,West,278,14.0,23.0,69,0.00,,---,0.01,VWS V14.00,2013-01-21 22:28:00,
2013-01-21 17:31:00,10.0,1.6,30.00,WNW,284,13.0,23.0,68,0.00,,---,0.01,VWS V14.00,2013-01-21 22:31:00,
2013-01-21 17:32:00,9.9,1.1,30.00,WNW,285,15.0,23.0,67,0.00,,---,0.01,VWS V14.00,2013-01-21 22:32:00,
2013-01-21 17:33:00,9.9,1.1,30.00,West,281,13.0,23.0,67,0.00,,---,0.01,VWS V14.00,2013-01-21 22:33:00,
2013-01-21 17:36:00,9.9,1.1,30.00,West,274,20.0,23.0,67,0.00,,---,0.01,VWS V14.00,2013-01-21 22:36:00,
2013-01-21 17:37:00,9.9,1.1,30.00,West,274,20.0,23.0,67,0.00,,---,0.01,VWS V14.00,2013-01-21 22:37:00,
2013-01-21 17:38:00,9.9,1.1,30.00,WNW,282,13.0,23.0,67,0.00,,---,0.01,VWS V14.00,2013-01-21 22:38:00,
2013-01-21 17:41:00,9.9,0.8,30.00,West,271,14.0,23.0,66,0.00,,---,0.01,VWS V14.00,2013-01-21 22:41:00,
2013-01-21 17:42:00,9.9,0.8,30.00,West,274,13.0,23.0,66,0.00,,---,0.01,VWS V14.00,2013-01-21 22:42:00,
2013-01-21 17:43:00,9.9,0.8,30.00,SW,227,8.0,23.0,66,0.00,,---,0.01,VWS V14.00,2013-01-21 22:43:00,
2013-01-21 17:46:00,9.9,0.8,30.00,WSW,251,11.0,23.0,66,0.00,,---,0.01,VWS V14.00,2013-01-21 22:46:00,
2013-01-21 17:47:00,9.7,0.6,30.00,West,275,8.0,23.0,66,0.00,,---,0.01,VWS V14.00,2013-01-21 22:47:00,
2013-01-21 17:48:00,9.7,0.6,30.00,West,278,11.0,23.0,66,0.00,,---,0.01,VWS V14.00,2013-01-21 22:48:00,
2013-01-21 17:51:00,9.7,1.0,30.00,WNW,284,10.0,23.0,67,0.00,,---,0.01,VWS V14.00,2013-01-21 22:51:00,
2013-01-21 17:52:00,9.7,1.0,30.00,WNW,284,10.0,23.0,67,0.00,,---,0.01,VWS V14.00,2013-01-21 22:52:00,
2013-01-21 17:53:00,9.7,1.0,30.00,WNW,287,14.0,23.0,67,0.00,,---,0.01,VWS V14.00,2013-01-21 22:53:00,
2013-01-21 17:56:00,9.7,1.3,30.00,West,268,8.0,23.0,68,0.00,,---,0.01,VWS V14.00,2013-01-21 22:56:00,
2013-01-21 17:57:00,9.7,1.6,30.00,West,275,11.0,23.0,69,0.00,,---,0.01,VWS V14.00,2013-01-21 22:57:00,
2013-01-21 17:58:00,9.7,1.6,30.00,NW,309,9.0,23.0,69,0.00,,---,0.01,VWS V14.00,2013-01-21 22:58:00,
2013-01-21 18:01:00,9.7,1.9,30.00,West,270,10.0,10.0,70,0.00,,---,0.01,VWS V14.00,2013-01-21 23:01:00,
2013-01-21 18:02:00,9.7,1.9,30.00,West,270,10.0,10.0,70,0.00,,---,0.01,VWS V14.00,2013-01-21 23:02:00,
2013-01-21 18:03:00,9.5,1.7,30.00,NW,306,11.0,11.0,70,0.00,,---,0.01,VWS V14.00,2013-01-21 23:03:00,
2013-01-21 18:06:00,9.3,1.8,30.00,WNW,295,7.0,11.0,71,0.00,,---,0.01,VWS V14.00,2013-01-21 23:06:00,
2013-01-21 18:07:00,9.3,1.8,30.00,WNW,295,7.0,11.0,71,0.00,,---,0.01,VWS V14.00,2013-01-21 23:07:00,
2013-01-21 18:09:00,9.3,1.8,30.00,SW,226,13.0,13.0,71,0.00,,---,0.01,VWS V14.00,2013-01-21 23:09:00,
2013-01-21 18:11:00,9.3,1.8,30.00,SW,232,11.0,13.0,71,0.00,,---,0.01,VWS V14.00,2013-01-21 23:11:00,
2013-01-21 18:12:00,9.3,1.8,30.00,WNW,287,11.0,17.0,71,0.00,,---,0.01,VWS V14.00,2013-01-21 23:12:00,
2013-01-21 18:14:00,9.3,1.8,30.00,WNW,287,10.0,17.0,71,0.00,,---,0.01,VWS V14.00,2013-01-21 23:14:00,
2013-01-21 18:16:00,9.2,1.7,30.00,West,271,10.0,17.0,71,0.00,,---,0.01,VWS V14.00,2013-01-21 23:16:00,
2013-01-21 18:17:00,9.2,1.7,30.00,West,271,10.0,17.0,71,0.00,,---,0.01,VWS V14.00,2013-01-21 23:17:00,
2013-01-21 18:19:00,9.2,1.7,30.00,WNW,285,15.0,17.0,71,0.00,,---,0.01,VWS V14.00,2013-01-21 23:19:00,
2013-01-21 18:22:00,9.2,1.7,30.00,West,280,15.0,17.0,71,0.00,,---,0.01,VWS V14.00,2013-01-21 23:22:00,
2013-01-21 18:24:00,9.2,1.7,30.00,West,280,8.0,17.0,71,0.00,,---,0.01,VWS V14.00,2013-01-21 23:24:00,
2013-01-21 18:27:00,9.0,1.5,30.00,WNW,301,11.0,17.0,71,0.00,,---,0.01,VWS V14.00,2013-01-21 23:27:00,
2013-01-21 18:29:00,8.8,1.0,30.00,SW,236,14.0,17.0,70,0.00,,---,0.01,VWS V14.00,2013-01-21 23:29:00,
2013-01-21 18:32:00,8.8,1.0,30.01,West,277,8.0,17.0,70,0.00,,---,0.01,VWS V14.00,2013-01-21 23:32:00,
2013-01-21 18:33:00,8.8,1.0,30.01,West,278,14.0,17.0,70,0.00,,---,0.01,VWS V14.00,2013-01-21 23:33:00,
2013-01-21 18:34:00,8.6,0.8,30.01,SW,216,16.0,18.0,70,0.00,,---,0.01,VWS V14.00,2013-01-21 23:34:00,
2013-01-21 18:37:00,8.4,0.6,30.01,West,272,14.0,18.0,70,0.00,,---,0.01,VWS V14.00,2013-01-21 23:37:00,
2013-01-21 18:38:00,8.4,0.6,30.01,West,274,15.0,18.0,70,0.00,,---,0.01,VWS V14.00,2013-01-21 23:38:00,
2013-01-21 18:39:00,8.4,-0.3,30.01,WNW,285,16.0,18.0,67,0.00,,---,0.01,VWS V14.00,2013-01-21 23:39:00,
2013-01-21 18:42:00,8.4,-0.3,30.01,WNW,302,10.0,18.0,67,0.00,,---,0.01,VWS V14.00,2013-01-21 23:42:00,
2013-01-21 18:43:00,8.3,-0.7,30.01,West,271,9.0,18.0,66,0.00,,---,0.01,VWS V14.00,2013-01-21 23:43:00,
2013-01-21 18:44:00,8.1,-0.9,30.01,West,280,9.0,18.0,66,0.00,,---,0.01,VWS V14.00,2013-01-21 23:44:00,
2013-01-21 18:47:00,8.1,-1.2,30.01,WNW,291,10.0,18.0,65,0.00,,---,0.01,VWS V14.00,2013-01-21 23:47:00,
2013-01-21 18:48:00,8.1,-1.2,30.01,WNW,291,10.0,18.0,65,0.00,,---,0.01,VWS V14.00,2013-01-21 23:48:00,
2013-01-21 18:49:00,8.1,-1.2,30.01,West,275,10.0,18.0,65,0.00,,---,0.01,VWS V14.00,2013-01-21 23:49:00,
2013-01-21 18:50:00,8.1,-1.2,30.01,West,277,11.0,18.0,65,0.00,,---,0.01,VWS V14.00,2013-01-21 23:50:00,
2013-01-21 18:52:00,7.9,-1.4,30.01,SW,234,11.0,18.0,65,0.00,,---,0.01,VWS V14.00,2013-01-21 23:52:00,
2013-01-21 18:53:00,7.9,-1.4,30.01,SW,227,11.0,18.0,65,0.00,,---,0.01,VWS V14.00,2013-01-21 23:53:00,
2013-01-21 18:54:00,7.9,-1.4,30.01,SW,227,11.0,18.0,65,0.00,,---,0.01,VWS V14.00,2013-01-21 23:54:00,
2013-01-21 18:55:00,7.9,-1.4,30.01,WNW,284,8.0,18.0,65,0.00,,---,0.01,VWS V14.00,2013-01-21 23:55:00,
2013-01-21 18:57:00,7.9,-1.4,30.01,WSW,244,8.0,18.0,65,0.00,,---,0.01,VWS V14.00,2013-01-21 23:57:00,
2013-01-21 18:58:00,7.9,-1.4,30.01,WNW,292,6.0,18.0,65,0.00,,---,0.01,VWS V14.00,2013-01-21 23:58:00,
2013-01-21 18:59:00,7.9,-1.4,30.01,WNW,292,6.0,18.0,65,0.00,,---,0.01,VWS V14.00,2013-01-21 23:59:00,
2013-01-21 19:01:00,7.9,-1.4,30.02,WNW,284,8.0,8.0,65,0.00,,---,0.01,VWS V14.00,2013-01-22 00:01:00,
2013-01-21 19:02:00,7.9,-1.4,30.02,WSW,257,7.0,10.0,65,0.00,,---,0.01,VWS V14.00,2013-01-22 00:02:00,
2013-01-21 19:03:00,7.9,-1.4,30.02,WSW,257,7.0,10.0,65,0.00,,---,0.01,VWS V14.00,2013-01-22 00:03:00,
2013-01-21 19:04:00,7.7,-1.6,30.02,WSW,248,15.0,17.0,65,0.00,,---,0.01,VWS V14.00,2013-01-22 00:04:00,
2013-01-21 19:06:00,7.7,-1.6,30.02,SW,230,6.0,17.0,65,0.00,,---,0.01,VWS V14.00,2013-01-22 00:06:00,
2013-01-21 19:08:00,7.7,-1.3,30.02,WNW,282,8.0,17.0,66,0.00,,---,0.01,VWS V14.00,2013-01-22 00:08:00,
2013-01-21 19:09:00,7.7,-1.3,30.02,WNW,285,9.0,17.0,66,0.00,,---,0.01,VWS V14.00,2013-01-22 00:09:00,
2013-01-21 19:11:00,7.7,-1.3,30.02,WNW,298,7.0,17.0,66,0.00,,---,0.01,VWS V14.00,2013-01-22 00:11:00,
2013-01-21 19:13:00,7.7,-1.3,30.02,WNW,284,7.0,17.0,66,0.00,,---,0.01,VWS V14.00,2013-01-22 00:13:00,
2013-01-21 19:14:00,7.7,-1.0,30.02,WNW,295,9.0,17.0,67,0.00,,---,0.01,VWS V14.00,2013-01-22 00:14:00,
2013-01-21 19:16:00,7.6,-1.0,30.02,WSW,243,11.0,17.0,67,0.00,,---,0.01,VWS V14.00,2013-01-22 00:16:00,
2013-01-21 19:18:00,7.6,-1.0,30.02,WNW,287,7.0,17.0,67,0.00,,---,0.01,VWS V14.00,2013-01-22 00:18:00,
2013-01-21 19:19:00,7.4,-1.2,30.02,SW,223,9.0,17.0,67,0.00,,---,0.01,VWS V14.00,2013-01-22 00:19:00,
2013-01-21 19:21:00,7.4,-0.9,30.02,WNW,292,10.0,17.0,68,0.00,,---,0.01,VWS V14.00,2013-01-22 00:21:00,
2013-01-21 19:23:00,7.4,-0.9,30.02,West,270,13.0,17.0,68,0.00,,---,0.01,VWS V14.00,2013-01-22 00:23:00,
2013-01-21 19:24:00,7.4,-0.9,30.02,West,275,11.0,17.0,68,0.00,,---,0.01,VWS V14.00,2013-01-22 00:24:00,
2013-01-21 19:26:00,7.2,-1.4,30.02,WNW,284,8.0,17.0,67,0.00,,---,0.01,VWS V14.00,2013-01-22 00:26:00,
2013-01-21 19:28:00,7.2,-1.4,30.02,WNW,284,9.0,17.0,67,0.00,,---,0.01,VWS V14.00,2013-01-22 00:28:00,
2013-01-21 19:29:00,7.2,-1.4,30.02,WNW,288,11.0,17.0,67,0.00,,---,0.01,VWS V14.00,2013-01-22 00:29:00,
2013-01-21 19:32:00,7.2,-1.4,30.03,WSW,239,11.0,17.0,67,0.00,,---,0.01,VWS V14.00,2013-01-22 00:32:00,
2013-01-21 19:33:00,7.2,-1.4,30.03,West,281,6.0,17.0,67,0.00,,---,0.01,VWS V14.00,2013-01-22 00:33:00,
2013-01-21 19:34:00,7.2,-1.4,30.03,West,275,9.0,17.0,67,0.00,,---,0.01,VWS V14.00,2013-01-22 00:34:00,
2013-01-21 19:37:00,7.0,-1.6,30.03,West,268,10.0,17.0,67,0.00,,---,0.01,VWS V14.00,2013-01-22 00:37:00,
2013-01-21 19:38:00,7.0,-2.0,30.03,SW,226,15.0,17.0,66,0.00,,---,0.01,VWS V14.00,2013-01-22 00:38:00,
2013-01-21 19:39:00,7.0,-2.0,30.03,West,271,7.0,17.0,66,0.00,,---,0.01,VWS V14.00,2013-01-22 00:39:00,
2013-01-21 19:42:00,7.0,-2.0,30.03,SW,215,8.0,17.0,66,0.00,,---,0.01,VWS V14.00,2013-01-22 00:42:00,
2013-01-21 19:43:00,7.0,-2.0,30.03,West,267,6.0,17.0,66,0.00,,---,0.01,VWS V14.00,2013-01-22 00:43:00,
2013-01-21 19:44:00,7.0,-2.0,30.03,West,271,8.0,17.0,66,0.00,,---,0.01,VWS V14.00,2013-01-22 00:44:00,
2013-01-21 19:47:00,6.9,-2.0,30.03,West,263,8.0,17.0,66,0.00,,---,0.01,VWS V14.00,2013-01-22 00:47:00,
2013-01-21 19:48:00,6.9,-2.0,30.03,WNW,292,7.0,17.0,66,0.00,,---,0.01,VWS V14.00,2013-01-22 00:48:00,
2013-01-21 19:49:00,6.9,-2.0,30.03,WNW,285,8.0,17.0,66,0.00,,---,0.01,VWS V14.00,2013-01-22 00:49:00,
2013-01-21 19:52:00,6.9,-2.0,30.03,West,278,2.0,17.0,66,0.00,,---,0.01,VWS V14.00,2013-01-22 00:52:00,
2013-01-21 19:54:00,6.9,-1.7,30.03,West,277,4.0,17.0,67,0.00,,---,0.01,VWS V14.00,2013-01-22 00:54:00,
2013-01-21 19:57:00,6.7,-1.9,30.03,West,277,8.0,17.0,67,0.00,,---,0.01,VWS V14.00,2013-01-22 00:57:00,
2013-01-21 19:59:00,6.7,-1.9,30.03,NW,304,6.0,17.0,67,0.00,,---,0.01,VWS V14.00,2013-01-22 00:59:00,
2013-01-21 20:02:00,6.7,-1.6,30.04,WNW,287,4.0,9.0,68,0.00,,---,0.01,VWS V14.00,2013-01-22 01:02:00,
2013-01-21 20:04:00,6.5,-1.8,30.04,WNW,295,4.0,9.0,68,0.00,,---,0.01,VWS V14.00,2013-01-22 01:04:00,
2013-01-21 20:05:00,6.5,-1.8,30.04,West,275,9.0,10.0,68,0.00,,---,0.01,VWS V14.00,2013-01-22 01:05:00,
2013-01-21 20:08:00,6.5,-1.8,30.04,WNW,289,8.0,10.0,68,0.00,,---,0.01,VWS V14.00,2013-01-22 01:08:00,
2013-01-21 20:09:00,6.5,-1.8,30.04,WNW,289,8.0,10.0,68,0.00,,---,0.01,VWS V14.00,2013-01-22 01:09:00,
2013-01-21 20:10:00,6.5,-1.5,30.04,WNW,291,6.0,10.0,69,0.00,,---,0.01,VWS V14.00,2013-01-22 01:10:00,
2013-01-21 20:13:00,6.5,-1.5,30.04,WNW,282,1.0,10.0,69,0.00,,---,0.01,VWS V14.00,2013-01-22 01:13:00,
2013-01-21 20:14:00,6.3,-1.7,30.04,WNW,294,8.0,10.0,69,0.00,,---,0.01,VWS V14.00,2013-01-22 01:14:00,
2013-01-21 20:15:00,6.3,-1.7,30.04,WNW,284,6.0,10.0,69,0.00,,---,0.01,VWS V14.00,2013-01-22 01:15:00,
2013-01-21 20:18:00,6.3,-1.4,30.04,WNW,292,6.0,10.0,70,0.00,,---,0.01,VWS V14.00,2013-01-22 01:18:00,
2013-01-21 20:19:00,6.3,-1.4,30.04,WNW,292,6.0,10.0,70,0.00,,---,0.01,VWS V14.00,2013-01-22 01:19:00,
2013-01-21 20:20:00,6.3,-1.4,30.04,WNW,292,6.0,10.0,70,0.00,,---,0.01,VWS V14.00,2013-01-22 01:20:00,
2013-01-21 20:23:00,6.1,-1.6,30.04,WNW,298,4.0,10.0,70,0.00,,---,0.01,VWS V14.00,2013-01-22 01:23:00,
2013-01-21 20:24:00,6.1,-1.6,30.04,WNW,298,4.0,10.0,70,0.00,,---,0.01,VWS V14.00,2013-01-22 01:24:00,
2013-01-21 20:25:00,6.1,-1.3,30.04,WNW,298,2.0,10.0,71,0.00,,---,0.01,VWS V14.00,2013-01-22 01:25:00,
2013-01-21 20:28:00,6.1,-1.3,30.04,WNW,298,7.0,10.0,71,0.00,,---,0.01,VWS V14.00,2013-01-22 01:28:00,
2013-01-21 20:29:00,6.1,-1.3,30.04,WNW,287,7.0,10.0,71,0.00,,---,0.01,VWS V14.00,2013-01-22 01:29:00,
2013-01-21 20:30:00,6.1,-1.3,30.04,WNW,287,7.0,10.0,71,0.00,,---,0.01,VWS V14.00,2013-01-22 01:30:00,
2013-01-21 20:31:00,6.1,-1.3,30.04,NW,306,4.0,10.0,71,0.00,,---,0.01,VWS V14.00,2013-01-22 01:31:00,
2013-01-21 20:33:00,6.1,-1.3,30.04,WNW,294,2.0,10.0,71,0.00,,---,0.01,VWS V14.00,2013-01-22 01:33:00,
2013-01-21 20:34:00,6.1,-1.0,30.04,WSW,239,1.0,10.0,72,0.00,,---,0.01,VWS V14.00,2013-01-22 01:34:00,
2013-01-21 20:35:00,6.1,-1.0,30.04,WSW,239,1.0,10.0,72,0.00,,---,0.01,VWS V14.00,2013-01-22 01:35:00,
2013-01-21 20:36:00,6.1,-1.0,30.04,West,281,4.0,10.0,72,0.00,,---,0.01,VWS V14.00,2013-01-22 01:36:00,
2013-01-21 20:38:00,6.1,-1.0,30.04,WNW,285,4.0,10.0,72,0.00,,---,0.01,VWS V14.00,2013-01-22 01:38:00,
2013-01-21 20:39:00,6.1,-1.0,30.04,WNW,289,4.0,10.0,72,0.00,,---,0.01,VWS V14.00,2013-01-22 01:39:00,
2013-01-21 20:40:00,6.1,-1.0,30.04,WNW,282,7.0,10.0,72,0.00,,---,0.01,VWS V14.00,2013-01-22 01:40:00,
2013-01-21 20:41:00,6.1,-0.7,30.04,West,277,2.0,10.0,73,0.00,,---,0.01,VWS V14.00,2013-01-22 01:41:00,
2013-01-21 20:43:00,6.1,-0.7,30.04,WNW,288,6.0,10.0,73,0.00,,---,0.01,VWS V14.00,2013-01-22 01:43:00,
2013-01-21 20:44:00,6.1,-0.7,30.04,WNW,295,4.0,10.0,73,0.00,,---,0.01,VWS V14.00,2013-01-22 01:44:00,
2013-01-21 20:45:00,6.1,-0.7,30.04,West,278,10.0,10.0,73,0.00,,---,0.01,VWS V14.00,2013-01-22 01:45:00,
2013-01-21 20:46:00,6.1,-0.7,30.04,WNW,289,7.0,11.0,73,0.00,,---,0.01,VWS V14.00,2013-01-22 01:46:00,
2013-01-21 20:48:00,6.1,-0.4,30.04,WNW,288,7.0,11.0,74,0.00,,---,0.01,VWS V14.00,2013-01-22 01:48:00,
2013-01-21 20:50:00,6.1,-0.4,30.04,WNW,284,8.0,11.0,74,0.00,,---,0.01,VWS V14.00,2013-01-22 01:50:00,
2013-01-21 20:51:00,6.1,-0.4,30.04,West,265,4.0,11.0,74,0.00,,---,0.01,VWS V14.00,2013-01-22 01:51:00,
2013-01-21 20:54:00,6.1,-0.1,30.04,WSW,248,2.0,11.0,75,0.00,,---,0.01,VWS V14.00,2013-01-22 01:54:00,
2013-01-21 20:55:00,6.1,-0.1,30.04,West,261,4.0,11.0,75,0.00,,---,0.01,VWS V14.00,2013-01-22 01:55:00,
2013-01-21 20:56:00,6.1,-0.1,30.04,West,281,8.0,11.0,75,0.00,,---,0.01,VWS V14.00,2013-01-22 01:56:00,
2013-01-21 20:59:00,6.1,-0.1,30.04,WSW,246,8.0,11.0,75,0.00,,---,0.01,VWS V14.00,2013-01-22 01:59:00,
2013-01-21 21:00:00,6.1,-0.1,30.05,WNW,285,8.0,11.0,75,0.00,,---,0.01,VWS V14.00,2013-01-22 02:00:00,
2013-01-21 21:01:00,6.1,-0.1,30.05,WSW,240,6.0,9.0,75,0.00,,---,0.01,VWS V14.00,2013-01-22 02:01:00,
2013-01-21 21:04:00,6.1,0.2,30.05,West,265,4.0,9.0,76,0.00,,---,0.01,VWS V14.00,2013-01-22 02:04:00,
2013-01-21 21:05:00,6.1,0.2,30.05,WSW,246,6.0,9.0,76,0.00,,---,0.01,VWS V14.00,2013-01-22 02:05:00,
2013-01-21 21:06:00,6.0,0.1,30.05,WNW,295,8.0,10.0,76,0.00,,---,0.01,VWS V14.00,2013-01-22 02:06:00,
2013-01-21 21:09:00,6.0,0.1,30.05,WNW,285,8.0,11.0,76,0.00,,---,0.01,VWS V14.00,2013-01-22 02:09:00,
2013-01-21 21:10:00,6.0,0.1,30.05,WNW,289,7.0,11.0,76,0.00,,---,0.01,VWS V14.00,2013-01-22 02:10:00,
2013-01-21 21:12:00,6.0,0.3,30.05,WNW,295,8.0,11.0,77,0.00,,---,0.01,VWS V14.00,2013-01-22 02:12:00,
2013-01-21 21:14:00,6.1,0.4,30.05,WNW,288,6.0,11.0,77,0.00,,---,0.01,VWS V14.00,2013-01-22 02:14:00,
2013-01-21 21:15:00,6.1,0.4,30.05,WNW,295,4.0,11.0,77,0.00,,---,0.01,VWS V14.00,2013-01-22 02:15:00,
2013-01-21 21:16:00,6.1,0.4,30.05,WNW,292,6.0,11.0,77,0.00,,---,0.01,VWS V14.00,2013-01-22 02:16:00,
2013-01-21 21:17:00,6.1,0.4,30.05,WNW,292,6.0,11.0,77,0.00,,---,0.01,VWS V14.00,2013-01-22 02:17:00,
2013-01-21 21:19:00,6.1,0.4,30.05,WNW,288,7.0,11.0,77,0.00,,---,0.01,VWS V14.00,2013-01-22 02:19:00,
2013-01-21 21:20:00,6.1,0.4,30.05,West,278,2.0,11.0,77,0.00,,---,0.01,VWS V14.00,2013-01-22 02:20:00,
2013-01-21 21:21:00,6.1,0.4,30.05,West,278,7.0,11.0,77,0.00,,---,0.01,VWS V14.00,2013-01-22 02:21:00,
2013-01-21 21:22:00,6.1,0.4,30.05,WNW,282,6.0,11.0,77,0.00,,---,0.01,VWS V14.00,2013-01-22 02:22:00,
2013-01-21 21:24:00,6.0,0.3,30.05,WNW,282,2.0,11.0,77,0.00,,---,0.01,VWS V14.00,2013-01-22 02:24:00,
2013-01-21 21:25:00,6.0,0.6,30.05,WNW,284,1.0,11.0,78,0.00,,---,0.01,VWS V14.00,2013-01-22 02:25:00,
2013-01-21 21:26:00,6.0,0.6,30.05,WNW,282,4.0,11.0,78,0.00,,---,0.01,VWS V14.00,2013-01-22 02:26:00,
2013-01-21 21:27:00,6.0,0.6,30.05,WNW,284,4.0,11.0,78,0.00,,---,0.01,VWS V14.00,2013-01-22 02:27:00,
2013-01-21 21:29:00,6.0,0.6,30.05,WNW,299,7.0,11.0,78,0.00,,---,0.01,VWS V14.00,2013-01-22 02:29:00,
2013-01-21 21:30:00,6.0,0.6,30.06,WNW,291,6.0,11.0,78,0.00,,---,0.01,VWS V14.00,2013-01-22 02:30:00,
2013-01-21 21:31:00,6.0,0.6,30.06,WNW,302,10.0,11.0,78,0.00,,---,0.01,VWS V14.00,2013-01-22 02:31:00,
2013-01-21 21:32:00,6.0,0.6,30.06,WNW,285,11.0,11.0,78,0.00,,---,0.01,VWS V14.00,2013-01-22 02:32:00,
2013-01-21 21:34:00,6.0,0.6,30.06,WNW,282,7.0,13.0,78,0.00,,---,0.01,VWS V14.00,2013-01-22 02:34:00,
2013-01-21 21:35:00,5.8,0.4,30.06,WNW,288,8.0,13.0,78,0.00,,---,0.01,VWS V14.00,2013-01-22 02:35:00,
2013-01-21 21:36:00,5.8,0.4,30.06,WNW,302,7.0,13.0,78,0.00,,---,0.01,VWS V14.00,2013-01-22 02:36:00,
2013-01-21 21:37:00,5.8,0.2,30.06,WNW,291,8.0,13.0,77,0.00,,---,0.01,VWS V14.00,2013-01-22 02:37:00,
2013-01-21 21:39:00,5.8,0.2,30.06,NW,318,8.0,13.0,77,0.00,,---,0.01,VWS V14.00,2013-01-22 02:39:00,
2013-01-21 21:40:00,5.6,0.0,30.06,NW,305,7.0,13.0,77,0.00,,---,0.01,VWS V14.00,2013-01-22 02:40:00,
2013-01-21 21:41:00,5.6,0.0,30.06,WNW,296,6.0,13.0,77,0.00,,---,0.01,VWS V14.00,2013-01-22 02:41:00,
2013-01-21 21:42:00,5.6,0.0,30.06,NW,319,7.0,13.0,77,0.00,,---,0.01,VWS V14.00,2013-01-22 02:42:00,
2013-01-21 21:44:00,5.6,0.0,30.06,West,277,6.0,13.0,77,0.00,,---,0.01,VWS V14.00,2013-01-22 02:44:00,
2013-01-21 21:45:00,5.6,0.0,30.06,West,278,8.0,13.0,77,0.00,,---,0.01,VWS V14.00,2013-01-22 02:45:00,
2013-01-21 21:46:00,5.6,0.0,30.06,WNW,289,6.0,13.0,77,0.00,,---,0.01,VWS V14.00,2013-01-22 02:46:00,
2013-01-21 21:47:00,5.6,0.0,30.06,West,278,7.0,13.0,77,0.00,,---,0.01,VWS V14.00,2013-01-22 02:47:00,
2013-01-21 21:49:00,5.4,-0.2,30.06,NW,319,6.0,13.0,77,0.00,,---,0.01,VWS V14.00,2013-01-22 02:49:00,
2013-01-21 21:50:00,5.4,-0.2,30.06,NW,316,2.0,13.0,77,0.00,,---,0.01,VWS V14.00,2013-01-22 02:50:00,
2013-01-21 21:52:00,5.4,-0.2,30.06,NW,315,6.0,13.0,77,0.00,,---,0.01,VWS V14.00,2013-01-22 02:52:00,
2013-01-21 21:55:00,5.4,-0.2,30.06,NW,309,8.0,13.0,77,0.00,,---,0.01,VWS V14.00,2013-01-22 02:55:00,
2013-01-21 21:56:00,5.4,-0.2,30.06,West,275,6.0,13.0,77,0.00,,---,0.01,VWS V14.00,2013-01-22 02:56:00,
2013-01-21 21:57:00,5.4,-0.2,30.06,West,278,8.0,13.0,77,0.00,,---,0.01,VWS V14.00,2013-01-22 02:57:00,
2013-01-21 22:00:00,5.4,-0.2,30.06,West,278,8.0,13.0,77,0.00,,---,0.01,VWS V14.00,2013-01-22 03:00:00,
2013-01-21 22:01:00,5.4,-0.2,30.06,West,278,2.0,8.0,77,0.00,,---,0.01,VWS V14.00,2013-01-22 03:01:00,
2013-01-21 22:02:00,5.4,-0.2,30.06,WNW,282,8.0,15.0,77,0.00,,---,0.01,VWS V14.00,2013-01-22 03:02:00,
2013-01-21 22:05:00,5.2,-0.7,30.06,WNW,285,9.0,15.0,76,0.00,,---,0.01,VWS V14.00,2013-01-22 03:05:00,
2013-01-21 22:06:00,5.2,-0.7,30.06,WNW,294,6.0,15.0,76,0.00,,---,0.01,VWS V14.00,2013-01-22 03:06:00,
2013-01-21 22:07:00,5.2,-0.7,30.06,WNW,296,8.0,15.0,76,0.00,,---,0.01,VWS V14.00,2013-01-22 03:07:00,
2013-01-21 22:10:00,5.2,-0.7,30.06,WNW,289,6.0,15.0,76,0.00,,---,0.01,VWS V14.00,2013-01-22 03:10:00,
2013-01-21 22:11:00,5.2,-0.7,30.06,West,270,6.0,15.0,76,0.00,,---,0.01,VWS V14.00,2013-01-22 03:11:00,
2013-01-21 22:12:00,5.2,-0.7,30.06,WNW,288,7.0,15.0,76,0.00,,---,0.01,VWS V14.00,2013-01-22 03:12:00,
2013-01-21 22:13:00,5.2,-0.7,30.06,WNW,289,4.0,15.0,76,0.00,,---,0.01,VWS V14.00,2013-01-22 03:13:00,
2013-01-21 22:15:00,5.2,-0.7,30.07,WNW,298,4.0,15.0,76,0.00,,---,0.01,VWS V14.00,2013-01-22 03:15:00,
2013-01-21 22:16:00,5.0,-0.9,30.07,WNW,298,4.0,15.0,76,0.00,,---,0.01,VWS V14.00,2013-01-22 03:16:00,
2013-01-21 22:17:00,5.0,-0.9,30.07,WNW,298,2.0,15.0,76,0.00,,---,0.01,VWS V14.00,2013-01-22 03:17:00,
2013-01-21 22:18:00,5.0,-0.9,30.07,WNW,285,8.0,15.0,76,0.00,,---,0.01,VWS V14.00,2013-01-22 03:18:00,
2013-01-21 22:20:00,5.0,-0.9,30.07,West,270,4.0,15.0,76,0.00,,---,0.01,VWS V14.00,2013-01-22 03:20:00,
2013-01-21 22:21:00,5.0,-0.9,30.07,WNW,285,4.0,15.0,76,0.00,,---,0.01,VWS V14.00,2013-01-22 03:21:00,
2013-01-21 22:22:00,5.0,-0.9,30.07,West,272,6.0,15.0,76,0.00,,---,0.01,VWS V14.00,2013-01-22 03:22:00,
2013-01-21 22:23:00,5.0,-0.9,30.07,West,272,7.0,15.0,76,0.00,,---,0.01,VWS V14.00,2013-01-22 03:23:00,
2013-01-21 22:25:00,4.8,-1.1,30.07,WNW,285,7.0,15.0,76,0.00,,---,0.01,VWS V14.00,2013-01-22 03:25:00,
2013-01-21 22:26:00,4.8,-1.1,30.07,WNW,288,4.0,15.0,76,0.00,,---,0.01,VWS V14.00,2013-01-22 03:26:00,
2013-01-21 22:27:00,4.8,-1.1,30.07,WNW,282,4.0,15.0,76,0.00,,---,0.01,VWS V14.00,2013-01-22 03:27:00,
2013-01-21 22:28:00,4.8,-1.1,30.07,West,278,6.0,15.0,76,0.00,,---,0.01,VWS V14.00,2013-01-22 03:28:00,
2013-01-21 22:30:00,4.8,-1.1,30.07,West,281,7.0,15.0,76,0.00,,---,0.01,VWS V14.00,2013-01-22 03:30:00,
2013-01-21 22:31:00,4.7,-1.2,30.07,WNW,295,6.0,15.0,76,0.00,,---,0.01,VWS V14.00,2013-01-22 03:31:00,
2013-01-21 22:32:00,4.7,-1.2,30.07,West,265,2.0,15.0,76,0.00,,---,0.01,VWS V14.00,2013-01-22 03:32:00,
2013-01-21 22:33:00,4.7,-1.2,30.07,West,270,6.0,15.0,76,0.00,,---,0.01,VWS V14.00,2013-01-22 03:33:00,
2013-01-21 22:35:00,4.7,-1.2,30.07,West,260,6.0,15.0,76,0.00,,---,0.01,VWS V14.00,2013-01-22 03:35:00,
2013-01-21 22:36:00,4.7,-1.2,30.07,West,278,6.0,15.0,76,0.00,,---,0.01,VWS V14.00,2013-01-22 03:36:00,
2013-01-21 22:37:00,4.7,-1.2,30.07,West,277,6.0,15.0,76,0.00,,---,0.01,VWS V14.00,2013-01-22 03:37:00,
2013-01-21 22:38:00,4.7,-1.2,30.07,West,278,9.0,15.0,76,0.00,,---,0.01,VWS V14.00,2013-01-22 03:38:00,
2013-01-21 22:40:00,4.5,-1.4,30.07,West,274,2.0,15.0,76,0.00,,---,0.01,VWS V14.00,2013-01-22 03:40:00,
2013-01-21 22:41:00,4.5,-1.4,30.07,West,270,2.0,15.0,76,0.00,,---,0.01,VWS V14.00,2013-01-22 03:41:00,
2013-01-21 22:43:00,4.5,-1.4,30.07,West,271,1.0,15.0,76,0.00,,---,0.01,VWS V14.00,2013-01-22 03:43:00,
2013-01-21 22:46:00,4.5,-1.4,30.07,WNW,298,7.0,15.0,76,0.00,,---,0.01,VWS V14.00,2013-01-22 03:46:00,
2013-01-21 22:48:00,4.5,-1.1,30.07,SW,217,8.0,15.0,77,0.00,,---,0.01,VWS V14.00,2013-01-22 03:48:00,
2013-01-21 22:51:00,4.3,-1.3,30.07,WNW,287,4.0,15.0,77,0.00,,---,0.01,VWS V14.00,2013-01-22 03:51:00,
2013-01-21 22:53:00,4.3,-1.3,30.07,West,277,6.0,15.0,77,0.00,,---,0.01,VWS V14.00,2013-01-22 03:53:00,
2013-01-21 22:56:00,4.3,-1.3,30.07,WNW,289,7.0,15.0,77,0.00,,---,0.01,VWS V14.00,2013-01-22 03:56:00,
2013-01-21 22:58:00,4.3,-1.3,30.07,WNW,287,8.0,15.0,77,0.00,,---,0.01,VWS V14.00,2013-01-22 03:58:00,
2013-01-21 23:01:00,4.5,-1.1,30.07,WNW,302,8.0,8.0,77,0.00,,---,0.01,VWS V14.00,2013-01-22 04:01:00,
2013-01-21 23:03:00,4.5,-1.1,30.07,West,275,6.0,10.0,77,0.00,,---,0.01,VWS V14.00,2013-01-22 04:03:00,
2013-01-21 23:06:00,4.5,-1.4,30.07,West,274,9.0,11.0,76,0.00,,---,0.01,VWS V14.00,2013-01-22 04:06:00,
2013-01-21 23:09:00,4.5,-1.4,30.07,West,263,2.0,11.0,76,0.00,,---,0.01,VWS V14.00,2013-01-22 04:09:00,
2013-01-21 23:11:00,4.5,-1.4,30.07,WNW,288,7.0,11.0,76,0.00,,---,0.01,VWS V14.00,2013-01-22 04:11:00,
2013-01-21 23:12:00,4.5,-1.4,30.07,WNW,282,8.0,11.0,76,0.00,,---,0.01,VWS V14.00,2013-01-22 04:12:00,
2013-01-21 23:13:00,4.5,-1.4,30.07,WNW,285,4.0,11.0,76,0.00,,---,0.01,VWS V14.00,2013-01-22 04:13:00,
2013-01-21 23:14:00,4.5,-1.4,30.07,WNW,288,7.0,11.0,76,0.00,,---,0.01,VWS V14.00,2013-01-22 04:14:00,
2013-01-21 23:16:00,4.5,-1.4,30.08,WNW,291,7.0,11.0,76,0.00,,---,0.01,VWS V14.00,2013-01-22 04:16:00,
2013-01-21 23:17:00,4.5,-1.4,30.08,WNW,301,8.0,11.0,76,0.00,,---,0.01,VWS V14.00,2013-01-22 04:17:00,
2013-01-21 23:19:00,4.5,-1.4,30.08,West,271,4.0,11.0,76,0.00,,---,0.01,VWS V14.00,2013-01-22 04:19:00,
2013-01-21 23:21:00,4.5,-1.4,30.08,West,278,11.0,11.0,76,0.00,,---,0.01,VWS V14.00,2013-01-22 04:21:00,
2013-01-21 23:22:00,4.5,-1.4,30.08,WNW,282,10.0,11.0,76,0.00,,---,0.01,VWS V14.00,2013-01-22 04:22:00,
2013-01-21 23:24:00,4.5,-1.4,30.08,WNW,298,8.0,14.0,76,0.00,,---,0.01,VWS V14.00,2013-01-22 04:24:00,
2013-01-21 23:26:00,4.3,-1.6,30.08,WNW,301,4.0,14.0,76,0.00,,---,0.01,VWS V14.00,2013-01-22 04:26:00,
2013-01-21 23:27:00,4.3,-1.6,30.08,WSW,257,4.0,14.0,76,0.00,,---,0.01,VWS V14.00,2013-01-22 04:27:00,
2013-01-21 23:29:00,4.3,-1.6,30.08,WNW,289,6.0,14.0,76,0.00,,---,0.01,VWS V14.00,2013-01-22 04:29:00,
2013-01-21 23:31:00,4.3,-1.6,30.08,WNW,296,8.0,14.0,76,0.00,,---,0.01,VWS V14.00,2013-01-22 04:31:00,
2013-01-21 23:32:00,4.3,-1.6,30.08,West,277,9.0,14.0,76,0.00,,---,0.01,VWS V14.00,2013-01-22 04:32:00,
2013-01-21 23:34:00,4.3,-1.6,30.08,West,277,9.0,14.0,76,0.00,,---,0.01,VWS V14.00,2013-01-22 04:34:00,
2013-01-21 23:36:00,4.3,-1.6,30.08,WNW,291,8.0,14.0,76,0.00,,---,0.01,VWS V14.00,2013-01-22 04:36:00,
2013-01-21 23:37:00,4.1,-1.8,30.08,WNW,298,7.0,14.0,76,0.00,,---,0.01,VWS V14.00,2013-01-22 04:37:00,
2013-01-21 23:39:00,4.1,-1.8,30.08,WNW,284,7.0,14.0,76,0.00,,---,0.01,VWS V14.00,2013-01-22 04:39:00,
2013-01-21 23:40:00,4.1,-1.8,30.08,WNW,285,9.0,14.0,76,0.00,,---,0.01,VWS V14.00,2013-01-22 04:40:00,
2013-01-21 23:41:00,4.1,-1.8,30.08,WNW,284,11.0,14.0,76,0.00,,---,0.01,VWS V14.00,2013-01-22 04:41:00,
2013-01-21 23:42:00,4.1,-1.8,30.08,West,271,8.0,14.0,76,0.00,,---,0.01,VWS V14.00,2013-01-22 04:42:00,
2013-01-21 23:44:00,4.1,-1.8,30.08,WNW,288,10.0,14.0,76,0.00,,---,0.01,VWS V14.00,2013-01-22 04:44:00,
2013-01-21 23:45:00,4.1,-1.8,30.08,WNW,289,6.0,14.0,76,0.00,,---,0.01,VWS V14.00,2013-01-22 04:45:00,
2013-01-21 23:47:00,4.1,-1.8,30.08,West,275,8.0,14.0,76,0.00,,---,0.01,VWS V14.00,2013-01-22 04:47:00,
2013-01-21 23:48:00,4.1,-1.8,30.08,WNW,294,6.0,14.0,76,0.00,,---,0.01,VWS V14.00,2013-01-22 04:48:00,
2013-01-21 23:49:00,4.1,-1.8,30.08,West,278,9.0,14.0,76,0.00,,---,0.01,VWS V14.00,2013-01-22 04:49:00,
2013-01-21 23:50:00,4.1,-1.8,30.08,WNW,288,7.0,14.0,76,0.00,,---,0.01,VWS V14.00,2013-01-22 04:50:00,
2013-01-21 23:52:00,4.1,-2.0,30.08,WNW,294,9.0,14.0,75,0.00,,---,0.01,VWS V14.00,2013-01-22 04:52:00,
2013-01-21 23:53:00,4.1,-2.0,30.08,WNW,284,10.0,14.0,75,0.00,,---,0.01,VWS V14.00,2013-01-22 04:53:00,
2013-01-21 23:54:00,4.1,-2.0,30.08,West,281,10.0,14.0,75,0.00,,---,0.01,VWS V14.00,2013-01-22 04:54:00,
2013-01-21 23:55:00,4.1,-2.0,30.08,West,277,8.0,14.0,75,0.00,,---,0.01,VWS V14.00,2013-01-22 04:55:00,
2013-01-21 23:57:00,4.1,-2.0,30.08,WNW,284,6.0,14.0,75,0.00,,---,0.01,VWS V14.00,2013-01-22 04:57:00,
2013-01-21 23:58:00,4.1,-2.0,30.08,WNW,288,4.0,14.0,75,0.00,,---,0.01,VWS V14.00,2013-01-22 04:58:00,
2013-01-21 23:59:00,4.1,-2.0,30.08,NW,309,4.0,14.0,75,0.00,,---,0.01,VWS V14.00,2013-01-22 04:59:00,